Wetterdaten: Montag, 07.04.2014
Datum Zeit Temp. Aussen +5cm Feuchte Auss Luftdruck Regen Sonnenschein Regendauer UV Solar Windben
07.04.2014 00:00 15,9 C 13,9 C 79 % 1017,0 hPa 0,0 l/m 0 min 0 min 0,0 UV-I 0 W/m 2,6 km/h (1 Bft)
07.04.2014 00:02 15,9 C 13,9 C 79 % 1017,0 hPa 0,0 l/m 0 min 0 min 0,0 UV-I 0 W/m 7,7 km/h (2 Bft)
07.04.2014 00:06 15,9 C 13,9 C 79 % 1017,1 hPa 0,0 l/m 0 min 0 min 0,0 UV-I 0 W/m 10,3 km/h (2 Bft)
07.04.2014 00:08 15,9 C 13,9 C 79 % 1017,1 hPa 0,0 l/m 0 min 0 min 0,0 UV-I 0 W/m 10,3 km/h (2 Bft)
07.04.2014 00:10 16,0 C 13,9 C 79 % 1017,1 hPa 0,0 l/m 0 min 0 min 0,0 UV-I 0 W/m 5,1 km/h (1 Bft)
07.04.2014 00:12 16,0 C 13,9 C 79 % 1017,1 hPa 0,0 l/m 0 min 0 min 0,0 UV-I 0 W/m 10,3 km/h (2 Bft)
07.04.2014 00:14 16,0 C 13,9 C 79 % 1017,1 hPa 0,0 l/m 0 min 0 min 0,0 UV-I 0 W/m 7,7 km/h (2 Bft)
07.04.2014 00:16 16,0 C 13,9 C 79 % 1017,1 hPa 0,0 l/m 0 min 0 min 0,0 UV-I 0 W/m 2,6 km/h (1 Bft)
07.04.2014 00:18 16,0 C 13,9 C 79 % 1017,1 hPa 0,0 l/m 0 min 0 min 0,0 UV-I 0 W/m 0,0 km/h (0 Bft)
07.04.2014 00:20 15,9 C 13,9 C 79 % 1017,1 hPa 0,0 l/m 0 min 0 min 0,0 UV-I 0 W/m 0,0 km/h (0 Bft)
07.04.2014 00:22 15,9 C 13,9 C 79 % 1017,1 hPa 0,0 l/m 0 min 0 min 0,0 UV-I 0 W/m 0,0 km/h (0 Bft)
07.04.2014 00:24 15,9 C 13,9 C 79 % 1017,1 hPa 0,0 l/m 0 min 0 min 0,0 UV-I 0 W/m 2,6 km/h (1 Bft)
07.04.2014 00:26 15,9 C 13,9 C 80 % 1017,1 hPa 0,0 l/m 0 min 0 min 0,0 UV-I 0 W/m 5,1 km/h (1 Bft)
07.04.2014 00:28 15,9 C 13,9 C 79 % 1017,1 hPa 0,0 l/m 0 min 0 min 0,0 UV-I 0 W/m 0,0 km/h (0 Bft)
07.04.2014 00:30 15,9 C 13,9 C 80 % 1017,2 hPa 0,0 l/m 0 min 0 min 0,0 UV-I 0 W/m 0,0 km/h (0 Bft)
07.04.2014 00:32 15,8 C 13,9 C 80 % 1017,2 hPa 0,0 l/m 0 min 0 min 0,0 UV-I 0 W/m 2,6 km/h (1 Bft)
07.04.2014 00:34 15,8 C 13,9 C 80 % 1017,1 hPa 0,0 l/m 0 min 0 min 0,0 UV-I 0 W/m 2,6 km/h (1 Bft)
07.04.2014 00:36 15,8 C 13,9 C 80 % 1017,2 hPa 0,0 l/m 0 min 0 min 0,0 UV-I 0 W/m 0,0 km/h (0 Bft)
07.04.2014 00:38 15,8 C 13,9 C 80 % 1017,2 hPa 0,0 l/m 0 min 0 min 0,0 UV-I 0 W/m 7,7 km/h (2 Bft)
07.04.2014 00:40 15,8 C 13,9 C 80 % 1017,2 hPa 0,0 l/m 0 min 0 min 0,0 UV-I 0 W/m 2,6 km/h (1 Bft)
07.04.2014 00:42 15,8 C 13,9 C 80 % 1017,2 hPa 0,0 l/m 0 min 0 min 0,0 UV-I 0 W/m 0,0 km/h (0 Bft)
07.04.2014 00:44 15,8 C 13,9 C 80 % 1017,2 hPa 0,0 l/m 0 min 0 min 0,0 UV-I 0 W/m 0,0 km/h (0 Bft)
07.04.2014 00:46 15,7 C 13,9 C 80 % 1017,2 hPa 0,0 l/m 0 min 0 min 0,0 UV-I 0 W/m 0,0 km/h (0 Bft)
07.04.2014 00:48 15,7 C 13,9 C 80 % 1017,1 hPa 0,0 l/m 0 min 0 min 0,0 UV-I 0 W/m 10,3 km/h (2 Bft)
07.04.2014 00:50 15,7 C 13,9 C 80 % 1017,2 hPa 0,0 l/m 0 min 0 min 0,0 UV-I 0 W/m 0,0 km/h (0 Bft)
07.04.2014 00:52 15,7 C 13,9 C 80 % 1017,1 hPa 0,0 l/m 0 min 0 min 0,0 UV-I 0 W/m 0,0 km/h (0 Bft)
07.04.2014 00:54 15,7 C 13,3 C 80 % 1017,1 hPa 0,0 l/m 0 min 0 min 0,0 UV-I 0 W/m 0,0 km/h (0 Bft)
07.04.2014 00:56 15,6 C 13,3 C 80 % 1017,2 hPa 0,0 l/m 0 min 0 min 0,0 UV-I 0 W/m 5,1 km/h (1 Bft)
07.04.2014 00:58 15,6 C 13,3 C 81 % 1017,2 hPa 0,0 l/m 0 min 0 min 0,0 UV-I 0 W/m 0,0 km/h (0 Bft)
07.04.2014 01:00 15,6 C 13,9 C 81 % 1017,2 hPa 0,0 l/m 0 min 0 min 0,0 UV-I 0 W/m 0,0 km/h (0 Bft)
07.04.2014 01:02 15,6 C 13,3 C 81 % 1017,2 hPa 0,0 l/m 0 min 0 min 0,0 UV-I 0 W/m 0,0 km/h (0 Bft)
07.04.2014 01:04 15,5 C 13,3 C 81 % 1017,2 hPa 0,0 l/m 0 min 0 min 0,0 UV-I 0 W/m 0,0 km/h (0 Bft)
07.04.2014 01:06 15,4 C 13,3 C 81 % 1017,2 hPa 0,0 l/m 0 min 0 min 0,0 UV-I 0 W/m 2,6 km/h (1 Bft)
07.04.2014 01:08 15,5 C 13,3 C 81 % 1017,2 hPa 0,0 l/m 0 min 0 min 0,0 UV-I 0 W/m 2,6 km/h (1 Bft)
07.04.2014 01:10 15,4 C 13,3 C 81 % 1017,2 hPa 0,0 l/m 0 min 0 min 0,0 UV-I 0 W/m 12,9 km/h (3 Bft)
07.04.2014 01:12 15,4 C 13,9 C 81 % 1017,2 hPa 0,0 l/m 0 min 0 min 0,0 UV-I 0 W/m 2,6 km/h (1 Bft)
07.04.2014 01:14 15,5 C 13,9 C 81 % 1017,3 hPa 0,0 l/m 0 min 0 min 0,0 UV-I 0 W/m 2,6 km/h (1 Bft)
07.04.2014 01:16 15,5 C 13,9 C 81 % 1017,3 hPa 0,0 l/m 0 min 0 min 0,0 UV-I 0 W/m 7,7 km/h (2 Bft)
07.04.2014 01:18 15,5 C 13,9 C 81 % 1017,2 hPa 0,0 l/m 0 min 0 min 0,0 UV-I 0 W/m 2,6 km/h (1 Bft)
07.04.2014 01:20 15,5 C 13,9 C 81 % 1017,2 hPa 0,0 l/m 0 min 0 min 0,0 UV-I 0 W/m 2,6 km/h (1 Bft)
07.04.2014 01:22 15,5 C 13,9 C 81 % 1017,2 hPa 0,0 l/m 0 min 0 min 0,0 UV-I 0 W/m 2,6 km/h (1 Bft)
07.04.2014 01:24 15,5 C 13,9 C 81 % 1017,2 hPa 0,0 l/m 0 min 0 min 0,0 UV-I 0 W/m 0,0 km/h (0 Bft)
07.04.2014 01:26 15,5 C 13,9 C 81 % 1017,2 hPa 0,0 l/m 0 min 0 min 0,0 UV-I 0 W/m 0,0 km/h (0 Bft)
07.04.2014 01:28 15,4 C 13,9 C 81 % 1017,2 hPa 0,0 l/m 0 min 0 min 0,0 UV-I 0 W/m 2,6 km/h (1 Bft)
07.04.2014 01:30 15,4 C 13,9 C 81 % 1017,2 hPa 0,0 l/m 0 min 0 min 0,0 UV-I 0 W/m 7,7 km/h (2 Bft)
07.04.2014 01:32 15,4 C 13,9 C 81 % 1017,2 hPa 0,0 l/m 0 min 0 min 0,0 UV-I 0 W/m 0,0 km/h (0 Bft)
07.04.2014 01:34 15,4 C 13,9 C 82 % 1017,2 hPa 0,0 l/m 0 min 0 min 0,0 UV-I 0 W/m 2,6 km/h (1 Bft)
07.04.2014 01:36 15,4 C 13,9 C 82 % 1017,2 hPa 0,0 l/m 0 min 0 min 0,0 UV-I 0 W/m 10,3 km/h (2 Bft)
07.04.2014 01:38 15,4 C 13,9 C 82 % 1017,2 hPa 0,0 l/m 0 min 0 min 0,0 UV-I 0 W/m 2,6 km/h (1 Bft)
07.04.2014 01:40 15,4 C 13,3 C 82 % 1017,2 hPa 0,0 l/m 0 min 0 min 0,0 UV-I 0 W/m 0,0 km/h (0 Bft)
07.04.2014 01:42 15,4 C 13,9 C 82 % 1017,2 hPa 0,0 l/m 0 min 0 min 0,0 UV-I 0 W/m 10,3 km/h (2 Bft)
07.04.2014 01:44 15,4 C 13,9 C 82 % 1017,2 hPa 0,0 l/m 0 min 0 min 0,0 UV-I 0 W/m 7,7 km/h (2 Bft)
07.04.2014 01:46 15,4 C 13,9 C 82 % 1017,2 hPa 0,0 l/m 0 min 0 min 0,0 UV-I 0 W/m 2,6 km/h (1 Bft)
07.04.2014 01:48 15,4 C 13,9 C 82 % 1017,3 hPa 0,0 l/m 0 min 0 min 0,0 UV-I 0 W/m 0,0 km/h (0 Bft)
07.04.2014 01:50 15,4 C 13,9 C 82 % 1017,2 hPa 0,0 l/m 0 min 0 min 0,0 UV-I 0 W/m 0,0 km/h (0 Bft)
07.04.2014 01:52 15,3 C 13,9 C 82 % 1017,2 hPa 0,0 l/m 0 min 0 min 0,0 UV-I 0 W/m 7,7 km/h (2 Bft)
07.04.2014 01:54 15,3 C 13,3 C 82 % 1017,2 hPa 0,0 l/m 0 min 0 min 0,0 UV-I 0 W/m 2,6 km/h (1 Bft)
07.04.2014 01:56 15,3 C 13,3 C 82 % 1017,3 hPa 0,0 l/m 0 min 0 min 0,0 UV-I 0 W/m 2,6 km/h (1 Bft)
07.04.2014 01:58 15,3 C 13,3 C 82 % 1017,2 hPa 0,0 l/m 0 min 0 min 0,0 UV-I 0 W/m 0,0 km/h (0 Bft)
07.04.2014 02:00 15,3 C 13,3 C 82 % 1017,2 hPa 0,0 l/m 0 min 0 min 0,0 UV-I 0 W/m 2,6 km/h (1 Bft)
07.04.2014 02:02 15,3 C 13,3 C 82 % 1017,2 hPa 0,0 l/m 0 min 0 min 0,0 UV-I 0 W/m 0,0 km/h (0 Bft)
07.04.2014 02:04 15,2 C 13,3 C 82 % 1017,2 hPa 0,0 l/m 0 min 0 min 0,0 UV-I 0 W/m 0,0 km/h (0 Bft)
07.04.2014 02:06 15,2 C 13,3 C 82 % 1017,1 hPa 0,0 l/m 0 min 0 min 0,0 UV-I 0 W/m 7,7 km/h (2 Bft)
07.04.2014 02:08 15,2 C 13,3 C 83 % 1017,1 hPa 0,0 l/m 0 min 0 min 0,0 UV-I 0 W/m 0,0 km/h (0 Bft)
07.04.2014 02:10 15,1 C 13,3 C 83 % 1017,2 hPa 0,0 l/m 0 min 0 min 0,0 UV-I 0 W/m 5,1 km/h (1 Bft)
07.04.2014 02:12 15,1 C 13,3 C 83 % 1017,2 hPa 0,0 l/m 0 min 0 min 0,0 UV-I 0 W/m 2,6 km/h (1 Bft)
07.04.2014 02:14 15,1 C 13,3 C 83 % 1017,2 hPa 0,0 l/m 0 min 0 min 0,0 UV-I 0 W/m 0,0 km/h (0 Bft)
07.04.2014 02:16 15,1 C 13,3 C 83 % 1017,1 hPa 0,0 l/m 0 min 0 min 0,0 UV-I 0 W/m 10,3 km/h (2 Bft)
07.04.2014 02:18 15,1 C 13,3 C 83 % 1017,2 hPa 0,0 l/m 0 min 0 min 0,0 UV-I 0 W/m 5,1 km/h (1 Bft)
07.04.2014 02:20 15,1 C 13,3 C 83 % 1017,2 hPa 0,0 l/m 0 min 0 min 0,0 UV-I 0 W/m 7,7 km/h (2 Bft)
07.04.2014 02:22 15,1 C 13,3 C 83 % 1017,2 hPa 0,0 l/m 0 min 0 min 0,0 UV-I 0 W/m 7,7 km/h (2 Bft)
07.04.2014 02:24 15,1 C 13,3 C 83 % 1017,2 hPa 0,0 l/m 0 min 0 min 0,0 UV-I 0 W/m 2,6 km/h (1 Bft)
07.04.2014 02:26 15,1 C 13,3 C 83 % 1017,2 hPa 0,0 l/m 0 min 0 min 0,0 UV-I 0 W/m 2,6 km/h (1 Bft)
07.04.2014 02:28 15,1 C 13,3 C 83 % 1017,2 hPa 0,0 l/m 0 min 0 min 0,0 UV-I 0 W/m 5,1 km/h (1 Bft)
07.04.2014 02:30 15,1 C 13,3 C 83 % 1017,2 hPa 0,0 l/m 0 min 0 min 0,0 UV-I 0 W/m 2,6 km/h (1 Bft)
07.04.2014 02:32 15,2 C 13,3 C 83 % 1017,2 hPa 0,0 l/m 0 min 0 min 0,0 UV-I 0 W/m 2,6 km/h (1 Bft)
07.04.2014 02:34 15,1 C 13,3 C 83 % 1017,3 hPa 0,0 l/m 0 min 0 min 0,0 UV-I 0 W/m 0,0 km/h (0 Bft)
07.04.2014 02:36 15,1 C 13,3 C 83 % 1017,3 hPa 0,0 l/m 0 min 0 min 0,0 UV-I 0 W/m 2,6 km/h (1 Bft)
07.04.2014 02:38 15,1 C 13,3 C 83 % 1017,2 hPa 0,0 l/m 0 min 0 min 0,0 UV-I 0 W/m 5,1 km/h (1 Bft)
07.04.2014 02:40 15,1 C 13,3 C 84 % 1017,2 hPa 0,0 l/m 0 min 0 min 0,0 UV-I 0 W/m 5,1 km/h (1 Bft)
07.04.2014 02:42 15,1 C 13,3 C 84 % 1017,2 hPa 0,0 l/m 0 min 0 min 0,0 UV-I 0 W/m 5,1 km/h (1 Bft)
07.04.2014 02:44 15,1 C 13,3 C 84 % 1017,2 hPa 0,0 l/m 0 min 0 min 0,0 UV-I 0 W/m 5,1 km/h (1 Bft)
07.04.2014 02:46 15,1 C 13,3 C 84 % 1017,2 hPa 0,0 l/m 0 min 2 min 0,0 UV-I 0 W/m 0,0 km/h (0 Bft)
07.04.2014 02:48 15,1 C 13,3 C 84 % 1017,2 hPa 0,0 l/m 0 min 0 min 0,0 UV-I 0 W/m 0,0 km/h (0 Bft)
07.04.2014 02:50 15,0 C 13,3 C 84 % 1017,1 hPa 0,0 l/m 0 min 0 min 0,0 UV-I 0 W/m 0,0 km/h (0 Bft)
07.04.2014 02:52 15,0 C 13,3 C 84 % 1017,1 hPa 0,0 l/m 0 min 0 min 0,0 UV-I 0 W/m 2,6 km/h (1 Bft)
07.04.2014 02:54 14,9 C 13,3 C 84 % 1017,1 hPa 0,0 l/m 0 min 0 min 0,0 UV-I 0 W/m 0,0 km/h (0 Bft)
07.04.2014 02:56 14,9 C 13,3 C 84 % 1017,1 hPa 0,0 l/m 0 min 0 min 0,0 UV-I 0 W/m 0,0 km/h (0 Bft)
07.04.2014 02:58 14,9 C 13,3 C 84 % 1017,1 hPa 0,0 l/m 0 min 0 min 0,0 UV-I 0 W/m 0,0 km/h (0 Bft)
07.04.2014 03:00 14,9 C 13,3 C 85 % 1017,1 hPa 0,0 l/m 0 min 0 min 0,0 UV-I 0 W/m 0,0 km/h (0 Bft)
07.04.2014 03:02 14,8 C 13,3 C 85 % 1017,1 hPa 0,0 l/m 0 min 0 min 0,0 UV-I 0 W/m 0,0 km/h (0 Bft)
07.04.2014 03:04 14,8 C 13,3 C 85 % 1017,1 hPa 0,0 l/m 0 min 0 min 0,0 UV-I 0 W/m 0,0 km/h (0 Bft)
07.04.2014 03:06 14,8 C 13,3 C 85 % 1017,2 hPa 0,0 l/m 0 min 0 min 0,0 UV-I 0 W/m 0,0 km/h (0 Bft)
07.04.2014 03:08 14,7 C 13,3 C 86 % 1017,2 hPa 0,0 l/m 0 min 0 min 0,0 UV-I 0 W/m 0,0 km/h (0 Bft)
07.04.2014 03:10 14,7 C 12,8 C 86 % 1017,1 hPa 0,0 l/m 0 min 0 min 0,0 UV-I 0 W/m 0,0 km/h (0 Bft)
07.04.2014 03:12 14,7 C 12,8 C 86 % 1017,2 hPa 0,0 l/m 0 min 0 min 0,0 UV-I 0 W/m 0,0 km/h (0 Bft)
07.04.2014 03:14 14,7 C 13,3 C 87 % 1017,2 hPa 0,0 l/m 0 min 0 min 0,0 UV-I 0 W/m 0,0 km/h (0 Bft)
07.04.2014 03:16 14,7 C 12,8 C 87 % 1017,1 hPa 0,0 l/m 0 min 0 min 0,0 UV-I 0 W/m 0,0 km/h (0 Bft)
07.04.2014 03:18 14,6 C 12,8 C 87 % 1017,1 hPa 0,0 l/m 0 min 0 min 0,0 UV-I 0 W/m 0,0 km/h (0 Bft)
07.04.2014 03:20 14,6 C 12,8 C 87 % 1017,1 hPa 0,0 l/m 0 min 0 min 0,0 UV-I 0 W/m 0,0 km/h (0 Bft)
07.04.2014 03:22 14,6 C 12,8 C 88 % 1017,0 hPa 0,0 l/m 0 min 0 min 0,0 UV-I 0 W/m 0,0 km/h (0 Bft)
07.04.2014 03:24 14,5 C 12,8 C 88 % 1017,1 hPa 0,0 l/m 0 min 0 min 0,0 UV-I 0 W/m 0,0 km/h (0 Bft)
07.04.2014 03:26 14,5 C 12,8 C 88 % 1017,0 hPa 0,0 l/m 0 min 0 min 0,0 UV-I 0 W/m 0,0 km/h (0 Bft)
07.04.2014 03:28 14,5 C 12,8 C 88 % 1017,0 hPa 0,0 l/m 0 min 0 min 0,0 UV-I 0 W/m 0,0 km/h (0 Bft)
07.04.2014 03:30 14,4 C 12,8 C 88 % 1017,0 hPa 0,0 l/m 0 min 0 min 0,0 UV-I 0 W/m 0,0 km/h (0 Bft)
07.04.2014 03:32 14,4 C 12,8 C 88 % 1017,0 hPa 0,0 l/m 0 min 0 min 0,0 UV-I 0 W/m 0,0 km/h (0 Bft)
07.04.2014 03:34 14,4 C 12,8 C 89 % 1017,0 hPa 0,0 l/m 0 min 0 min 0,0 UV-I 0 W/m 0,0 km/h (0 Bft)
07.04.2014 03:36 14,4 C 12,8 C 89 % 1017,0 hPa 0,0 l/m 0 min 0 min 0,0 UV-I 0 W/m 0,0 km/h (0 Bft)
07.04.2014 03:38 14,4 C 12,8 C 89 % 1017,0 hPa 0,0 l/m 0 min 0 min 0,0 UV-I 0 W/m 0,0 km/h (0 Bft)
07.04.2014 03:40 14,4 C 12,8 C 88 % 1017,0 hPa 0,0 l/m 0 min 0 min 0,0 UV-I 0 W/m 0,0 km/h (0 Bft)
07.04.2014 03:42 14,3 C 12,8 C 88 % 1016,9 hPa 0,0 l/m 0 min 0 min 0,0 UV-I 0 W/m 0,0 km/h (0 Bft)
07.04.2014 03:44 14,3 C 12,8 C 88 % 1017,0 hPa 0,0 l/m 0 min 0 min 0,0 UV-I 0 W/m 0,0 km/h (0 Bft)
07.04.2014 03:46 14,3 C 12,8 C 88 % 1017,0 hPa 0,0 l/m 0 min 0 min 0,0 UV-I 0 W/m 0,0 km/h (0 Bft)
07.04.2014 03:48 14,3 C 12,8 C 88 % 1016,9 hPa 0,0 l/m 0 min 0 min 0,0 UV-I 0 W/m 0,0 km/h (0 Bft)
07.04.2014 03:50 14,4 C 12,8 C 88 % 1017,0 hPa 0,0 l/m 0 min 0 min 0,0 UV-I 0 W/m 0,0 km/h (0 Bft)
07.04.2014 03:52 14,4 C 12,8 C 88 % 1017,0 hPa 0,0 l/m 0 min 0 min 0,0 UV-I 0 W/m 0,0 km/h (0 Bft)
07.04.2014 03:54 14,4 C 12,8 C 88 % 1017,0 hPa 0,0 l/m 0 min 0 min 0,0 UV-I 0 W/m 0,0 km/h (0 Bft)
07.04.2014 03:56 14,4 C 12,8 C 88 % 1016,9 hPa 0,0 l/m 0 min 0 min 0,0 UV-I 0 W/m 0,0 km/h (0 Bft)
07.04.2014 03:58 14,4 C 12,8 C 88 % 1016,9 hPa 0,0 l/m 0 min 0 min 0,0 UV-I 0 W/m 0,0 km/h (0 Bft)
07.04.2014 04:00 14,4 C 12,8 C 87 % 1017,0 hPa 0,0 l/m 0 min 0 min 0,0 UV-I 0 W/m 0,0 km/h (0 Bft)
07.04.2014 04:02 14,4 C 12,8 C 87 % 1016,9 hPa 0,0 l/m 0 min 0 min 0,0 UV-I 0 W/m 0,0 km/h (0 Bft)
07.04.2014 04:04 14,4 C 12,8 C 87 % 1016,9 hPa 0,0 l/m 0 min 0 min 0,0 UV-I 0 W/m 0,0 km/h (0 Bft)
07.04.2014 04:06 14,4 C 12,8 C 87 % 1016,8 hPa 0,0 l/m 0 min 0 min 0,0 UV-I 0 W/m 0,0 km/h (0 Bft)
07.04.2014 04:08 14,4 C 12,8 C 87 % 1016,8 hPa 0,0 l/m 0 min 0 min 0,0 UV-I 0 W/m 0,0 km/h (0 Bft)
07.04.2014 04:10 14,5 C 12,8 C 87 % 1016,8 hPa 0,0 l/m 0 min 0 min 0,0 UV-I 0 W/m 0,0 km/h (0 Bft)
07.04.2014 04:12 14,5 C 12,8 C 86 % 1016,8 hPa 0,0 l/m 0 min 0 min 0,0 UV-I 0 W/m 0,0 km/h (0 Bft)
07.04.2014 04:14 14,5 C 12,8 C 86 % 1016,8 hPa 0,0 l/m 0 min 0 min 0,0 UV-I 0 W/m 0,0 km/h (0 Bft)
07.04.2014 04:16 14,5 C 12,8 C 86 % 1016,8 hPa 0,0 l/m 0 min 0 min 0,0 UV-I 0 W/m 0,0 km/h (0 Bft)
07.04.2014 04:18 14,5 C 12,8 C 86 % 1016,8 hPa 0,0 l/m 0 min 0 min 0,0 UV-I 0 W/m 0,0 km/h (0 Bft)
07.04.2014 04:20 14,5 C 12,8 C 86 % 1016,8 hPa 0,0 l/m 0 min 0 min 0,0 UV-I 0 W/m 2,6 km/h (1 Bft)
07.04.2014 04:22 14,6 C 12,8 C 86 % 1016,8 hPa 0,0 l/m 0 min 0 min 0,0 UV-I 0 W/m 0,0 km/h (0 Bft)
07.04.2014 04:24 14,6 C 12,8 C 86 % 1016,7 hPa 0,0 l/m 0 min 0 min 0,0 UV-I 0 W/m 0,0 km/h (0 Bft)
07.04.2014 04:26 14,6 C 12,8 C 86 % 1016,8 hPa 0,0 l/m 0 min 0 min 0,0 UV-I 0 W/m 0,0 km/h (0 Bft)
07.04.2014 04:28 14,6 C 12,8 C 86 % 1016,8 hPa 0,0 l/m 0 min 0 min 0,0 UV-I 0 W/m 0,0 km/h (0 Bft)
07.04.2014 04:30 14,6 C 12,8 C 86 % 1016,8 hPa 0,0 l/m 0 min 0 min 0,0 UV-I 0 W/m 0,0 km/h (0 Bft)
07.04.2014 04:32 14,6 C 12,8 C 86 % 1016,8 hPa 0,0 l/m 0 min 0 min 0,0 UV-I 0 W/m 0,0 km/h (0 Bft)
07.04.2014 04:34 14,6 C 12,8 C 86 % 1016,8 hPa 0,0 l/m 0 min 0 min 0,0 UV-I 0 W/m 0,0 km/h (0 Bft)
07.04.2014 04:36 14,6 C 12,8 C 86 % 1016,8 hPa 0,0 l/m 0 min 0 min 0,0 UV-I 0 W/m 0,0 km/h (0 Bft)
07.04.2014 04:38 14,5 C 12,8 C 86 % 1016,7 hPa 0,0 l/m 0 min 0 min 0,0 UV-I 0 W/m 0,0 km/h (0 Bft)
07.04.2014 04:40 14,4 C 12,2 C 86 % 1016,7 hPa 0,0 l/m 0 min 0 min 0,0 UV-I 0 W/m 0,0 km/h (0 Bft)
07.04.2014 04:42 14,4 C 12,8 C 86 % 1016,8 hPa 0,0 l/m 0 min 0 min 0,0 UV-I 0 W/m 5,1 km/h (1 Bft)
07.04.2014 04:44 14,4 C 12,8 C 86 % 1016,7 hPa 0,0 l/m 0 min 0 min 0,0 UV-I 0 W/m 0,0 km/h (0 Bft)
07.04.2014 04:46 14,4 C 12,2 C 86 % 1016,7 hPa 0,0 l/m 0 min 0 min 0,0 UV-I 0 W/m 0,0 km/h (0 Bft)
07.04.2014 04:48 14,4 C 12,2 C 86 % 1016,7 hPa 0,0 l/m 0 min 0 min 0,0 UV-I 0 W/m 0,0 km/h (0 Bft)
07.04.2014 04:50 14,4 C 12,2 C 86 % 1016,7 hPa 0,0 l/m 0 min 0 min 0,0 UV-I 0 W/m 0,0 km/h (0 Bft)
07.04.2014 04:52 14,4 C 12,2 C 86 % 1016,7 hPa 0,0 l/m 0 min 0 min 0,0 UV-I 0 W/m 0,0 km/h (0 Bft)
07.04.2014 04:54 14,4 C 12,2 C 86 % 1016,7 hPa 0,0 l/m 0 min 0 min 0,0 UV-I 0 W/m 0,0 km/h (0 Bft)
07.04.2014 04:56 14,4 C 12,2 C 86 % 1016,7 hPa 0,0 l/m 0 min 0 min 0,0 UV-I 0 W/m 0,0 km/h (0 Bft)
07.04.2014 04:58 14,4 C 12,2 C 87 % 1016,7 hPa 0,0 l/m 0 min 0 min 0,0 UV-I 0 W/m 0,0 km/h (0 Bft)
07.04.2014 05:00 14,4 C 12,2 C 87 % 1016,7 hPa 0,0 l/m 0 min 0 min 0,0 UV-I 0 W/m 0,0 km/h (0 Bft)
07.04.2014 05:02 14,4 C 12,2 C 87 % 1016,7 hPa 0,0 l/m 0 min 0 min 0,0 UV-I 0 W/m 0,0 km/h (0 Bft)
07.04.2014 05:04 14,3 C 12,2 C 87 % 1016,7 hPa 0,0 l/m 0 min 0 min 0,0 UV-I 0 W/m 0,0 km/h (0 Bft)
07.04.2014 05:06 14,3 C 12,2 C 87 % 1016,7 hPa 0,0 l/m 0 min 0 min 0,0 UV-I 0 W/m 0,0 km/h (0 Bft)
07.04.2014 05:08 14,2 C 12,2 C 87 % 1016,7 hPa 0,0 l/m 0 min 0 min 0,0 UV-I 0 W/m 0,0 km/h (0 Bft)
07.04.2014 05:10 14,2 C 12,2 C 87 % 1016,6 hPa 0,0 l/m 0 min 0 min 0,0 UV-I 0 W/m 0,0 km/h (0 Bft)
07.04.2014 05:12 14,2 C 12,2 C 87 % 1016,7 hPa 0,0 l/m 0 min 0 min 0,0 UV-I 0 W/m 0,0 km/h (0 Bft)
07.04.2014 05:14 14,2 C 12,2 C 87 % 1016,6 hPa 0,0 l/m 0 min 0 min 0,0 UV-I 0 W/m 0,0 km/h (0 Bft)
07.04.2014 05:16 14,2 C 12,2 C 88 % 1016,6 hPa 0,0 l/m 0 min 0 min 0,0 UV-I 0 W/m 0,0 km/h (0 Bft)
07.04.2014 05:18 14,1 C 12,2 C 88 % 1016,6 hPa 0,0 l/m 0 min 0 min 0,0 UV-I 0 W/m 0,0 km/h (0 Bft)
07.04.2014 05:20 14,0 C 12,2 C 88 % 1016,6 hPa 0,0 l/m 0 min 0 min 0,0 UV-I 0 W/m 0,0 km/h (0 Bft)
07.04.2014 05:22 13,9 C 12,2 C 88 % 1016,6 hPa 0,0 l/m 0 min 0 min 0,0 UV-I 0 W/m 0,0 km/h (0 Bft)
07.04.2014 05:24 13,9 C 12,2 C 88 % 1016,5 hPa 0,0 l/m 0 min 0 min 0,0 UV-I 0 W/m 0,0 km/h (0 Bft)
07.04.2014 05:26 13,9 C 12,2 C 89 % 1016,5 hPa 0,0 l/m 0 min 0 min 0,0 UV-I 0 W/m 0,0 km/h (0 Bft)
07.04.2014 05:28 13,9 C 12,2 C 89 % 1016,5 hPa 0,0 l/m 0 min 0 min 0,0 UV-I 0 W/m 0,0 km/h (0 Bft)
07.04.2014 05:30 13,9 C 12,2 C 89 % 1016,5 hPa 0,0 l/m 0 min 0 min 0,0 UV-I 0 W/m 0,0 km/h (0 Bft)
07.04.2014 05:32 13,9 C 12,2 C 89 % 1016,5 hPa 0,0 l/m 0 min 0 min 0,0 UV-I 0 W/m 0,0 km/h (0 Bft)
07.04.2014 05:34 13,8 C 12,2 C 89 % 1016,5 hPa 0,0 l/m 0 min 0 min 0,0 UV-I 0 W/m 0,0 km/h (0 Bft)
07.04.2014 05:36 13,8 C 12,2 C 89 % 1016,5 hPa 0,0 l/m 0 min 0 min 0,0 UV-I 0 W/m 0,0 km/h (0 Bft)
07.04.2014 05:38 13,8 C 12,2 C 89 % 1016,5 hPa 0,0 l/m 0 min 0 min 0,0 UV-I 0 W/m 2,6 km/h (1 Bft)
07.04.2014 05:40 13,8 C 12,2 C 89 % 1016,5 hPa 0,0 l/m 0 min 0 min 0,0 UV-I 0 W/m 2,6 km/h (1 Bft)
07.04.2014 05:42 13,8 C 12,2 C 89 % 1016,4 hPa 0,0 l/m 0 min 0 min 0,0 UV-I 0 W/m 7,7 km/h (2 Bft)
07.04.2014 05:44 13,7 C 12,2 C 89 % 1016,5 hPa 0,0 l/m 0 min 0 min 0,0 UV-I 0 W/m 2,6 km/h (1 Bft)
07.04.2014 05:46 13,7 C 12,2 C 89 % 1016,5 hPa 0,0 l/m 0 min 0 min 0,0 UV-I 0 W/m 2,6 km/h (1 Bft)
07.04.2014 05:48 13,7 C 12,2 C 89 % 1016,4 hPa 0,0 l/m 0 min 0 min 0,0 UV-I 0 W/m 2,6 km/h (1 Bft)
07.04.2014 05:50 13,7 C 12,2 C 89 % 1016,5 hPa 0,0 l/m 0 min 0 min 0,0 UV-I 0 W/m 0,0 km/h (0 Bft)
07.04.2014 05:52 13,7 C 12,2 C 89 % 1016,5 hPa 0,0 l/m 0 min 0 min 0,0 UV-I 0 W/m 0,0 km/h (0 Bft)
07.04.2014 05:54 13,6 C 12,2 C 89 % 1016,5 hPa 0,0 l/m 0 min 0 min 0,0 UV-I 0 W/m 0,0 km/h (0 Bft)
07.04.2014 05:56 13,6 C 12,2 C 90 % 1016,5 hPa 0,0 l/m 0 min 0 min 0,0 UV-I 0 W/m 2,6 km/h (1 Bft)
07.04.2014 05:58 13,6 C 12,2 C 90 % 1016,5 hPa 0,0 l/m 0 min 0 min 0,0 UV-I 0 W/m 0,0 km/h (0 Bft)
07.04.2014 06:00 13,5 C 12,2 C 90 % 1016,5 hPa 0,0 l/m 0 min 0 min 0,0 UV-I 0 W/m 0,0 km/h (0 Bft)
07.04.2014 06:02 13,5 C 12,2 C 90 % 1016,6 hPa 0,0 l/m 0 min 0 min 0,0 UV-I 0 W/m 0,0 km/h (0 Bft)
07.04.2014 06:04 13,5 C 12,2 C 90 % 1016,6 hPa 0,0 l/m 0 min 0 min 0,0 UV-I 0 W/m 0,0 km/h (0 Bft)
07.04.2014 06:06 13,5 C 12,2 C 90 % 1016,5 hPa 0,0 l/m 0 min 0 min 0,0 UV-I 0 W/m 0,0 km/h (0 Bft)
07.04.2014 06:08 13,5 C 12,2 C 90 % 1016,5 hPa 0,0 l/m 0 min 0 min 0,0 UV-I 0 W/m 0,0 km/h (0 Bft)
07.04.2014 06:10 13,4 C 11,7 C 90 % 1016,5 hPa 0,0 l/m 0 min 0 min 0,0 UV-I 0 W/m 0,0 km/h (0 Bft)
07.04.2014 06:12 13,4 C 11,7 C 91 % 1016,6 hPa 0,0 l/m 0 min 0 min 0,0 UV-I 0 W/m 0,0 km/h (0 Bft)
07.04.2014 06:14 13,4 C 11,7 C 91 % 1016,6 hPa 0,0 l/m 0 min 0 min 0,0 UV-I 0 W/m 0,0 km/h (0 Bft)
07.04.2014 06:16 13,4 C 11,7 C 91 % 1016,6 hPa 0,0 l/m 0 min 0 min 0,0 UV-I 0 W/m 0,0 km/h (0 Bft)
07.04.2014 06:18 13,4 C 11,7 C 91 % 1016,6 hPa 0,0 l/m 0 min 0 min 0,0 UV-I 0 W/m 0,0 km/h (0 Bft)
07.04.2014 06:20 13,5 C 11,7 C 91 % 1016,6 hPa 0,0 l/m 0 min 0 min 0,0 UV-I 0 W/m 0,0 km/h (0 Bft)
07.04.2014 06:22 13,5 C 11,7 C 91 % 1016,6 hPa 0,0 l/m 0 min 0 min 0,0 UV-I 0 W/m 0,0 km/h (0 Bft)
07.04.2014 06:24 13,5 C 11,7 C 91 % 1016,6 hPa 0,0 l/m 0 min 0 min 0,0 UV-I 0 W/m 0,0 km/h (0 Bft)
07.04.2014 06:26 13,5 C 11,7 C 91 % 1016,6 hPa 0,0 l/m 0 min 0 min 0,0 UV-I 0 W/m 0,0 km/h (0 Bft)
07.04.2014 06:28 13,5 C 11,7 C 91 % 1016,6 hPa 0,0 l/m 0 min 0 min 0,0 UV-I 0 W/m 0,0 km/h (0 Bft)
07.04.2014 06:30 13,5 C 11,7 C 91 % 1016,6 hPa 0,0 l/m 0 min 0 min 0,0 UV-I 0 W/m 0,0 km/h (0 Bft)
07.04.2014 06:32 13,5 C 11,7 C 91 % 1016,6 hPa 0,0 l/m 0 min 0 min 0,0 UV-I 0 W/m 0,0 km/h (0 Bft)
07.04.2014 06:34 13,5 C 11,7 C 91 % 1016,6 hPa 0,0 l/m 0 min 0 min 0,0 UV-I 0 W/m 0,0 km/h (0 Bft)
07.04.2014 06:36 13,6 C 11,7 C 91 % 1016,6 hPa 0,0 l/m 0 min 0 min 0,0 UV-I 0 W/m 0,0 km/h (0 Bft)
07.04.2014 06:38 13,6 C 11,7 C 91 % 1016,6 hPa 0,0 l/m 0 min 0 min 0,0 UV-I 0 W/m 0,0 km/h (0 Bft)
07.04.2014 06:40 13,6 C 11,7 C 91 % 1016,6 hPa 0,0 l/m 0 min 0 min 0,0 UV-I 0 W/m 0,0 km/h (0 Bft)
07.04.2014 06:42 13,6 C 11,7 C 91 % 1016,6 hPa 0,0 l/m 0 min 0 min 0,0 UV-I 0 W/m 0,0 km/h (0 Bft)
07.04.2014 06:44 13,6 C 11,7 C 91 % 1016,6 hPa 0,0 l/m 0 min 0 min 0,0 UV-I 0 W/m 0,0 km/h (0 Bft)
07.04.2014 06:46 13,6 C 11,7 C 91 % 1016,6 hPa 0,0 l/m 0 min 0 min 0,0 UV-I 0 W/m 0,0 km/h (0 Bft)
07.04.2014 06:48 13,6 C 11,7 C 91 % 1016,6 hPa 0,0 l/m 0 min 0 min 0,0 UV-I 0 W/m 0,0 km/h (0 Bft)
07.04.2014 06:50 13,6 C 11,7 C 91 % 1016,6 hPa 0,0 l/m 0 min 0 min 0,0 UV-I 0 W/m 0,0 km/h (0 Bft)
07.04.2014 06:52 13,6 C 11,7 C 91 % 1016,5 hPa 0,0 l/m 0 min 0 min 0,0 UV-I 0 W/m 0,0 km/h (0 Bft)
07.04.2014 06:54 13,6 C 11,7 C 91 % 1016,5 hPa 0,0 l/m 0 min 0 min 0,0 UV-I 0 W/m 0,0 km/h (0 Bft)
07.04.2014 06:56 13,6 C 11,7 C 91 % 1016,5 hPa 0,0 l/m 0 min 0 min 0,0 UV-I 0 W/m 0,0 km/h (0 Bft)
07.04.2014 06:58 13,6 C 11,7 C 91 % 1016,5 hPa 0,0 l/m 0 min 0 min 0,0 UV-I 0 W/m 0,0 km/h (0 Bft)
07.04.2014 07:00 13,5 C 11,7 C 91 % 1016,4 hPa 0,0 l/m 0 min 0 min 0,0 UV-I 0 W/m 0,0 km/h (0 Bft)
07.04.2014 07:02 13,5 C 11,7 C 91 % 1016,4 hPa 0,0 l/m 0 min 0 min 0,0 UV-I 0 W/m 5,1 km/h (1 Bft)
07.04.2014 07:04 13,5 C 11,7 C 91 % 1016,4 hPa 0,0 l/m 0 min 0 min 0,0 UV-I 0 W/m 0,0 km/h (0 Bft)
07.04.2014 07:06 13,5 C 11,7 C 91 % 1016,4 hPa 0,0 l/m 0 min 0 min 0,0 UV-I 5 W/m 0,0 km/h (0 Bft)
07.04.2014 07:08 13,5 C 11,7 C 91 % 1016,4 hPa 0,0 l/m 0 min 0 min 0,0 UV-I 5 W/m 0,0 km/h (0 Bft)
07.04.2014 07:10 13,5 C 11,7 C 91 % 1016,4 hPa 0,0 l/m 0 min 0 min 0,0 UV-I 7 W/m 0,0 km/h (0 Bft)
07.04.2014 07:12 13,5 C 11,7 C 91 % 1016,4 hPa 0,0 l/m 0 min 0 min 0,0 UV-I 7 W/m 0,0 km/h (0 Bft)
07.04.2014 07:14 13,6 C 11,7 C 91 % 1016,4 hPa 0,0 l/m 0 min 0 min 0,0 UV-I 7 W/m 0,0 km/h (0 Bft)
07.04.2014 07:16 13,6 C 11,7 C 91 % 1016,4 hPa 0,0 l/m 0 min 0 min 0,0 UV-I 9 W/m 0,0 km/h (0 Bft)
07.04.2014 07:18 13,6 C 11,7 C 91 % 1016,4 hPa 0,0 l/m 0 min 0 min 0,0 UV-I 9 W/m 0,0 km/h (0 Bft)
07.04.2014 07:20 13,6 C 12,2 C 91 % 1016,4 hPa 0,0 l/m 0 min 0 min 0,0 UV-I 11 W/m 0,0 km/h (0 Bft)
07.04.2014 07:22 13,6 C 12,2 C 91 % 1016,4 hPa 0,0 l/m 0 min 0 min 0,0 UV-I 12 W/m 0,0 km/h (0 Bft)
07.04.2014 07:24 13,6 C 12,2 C 91 % 1016,4 hPa 0,0 l/m 0 min 0 min 0,0 UV-I 14 W/m 0,0 km/h (0 Bft)
07.04.2014 07:26 13,7 C 12,2 C 91 % 1016,4 hPa 0,0 l/m 0 min 0 min 0,0 UV-I 16 W/m 0,0 km/h (0 Bft)
07.04.2014 07:28 13,7 C 12,2 C 91 % 1016,4 hPa 0,0 l/m 0 min 0 min 0,0 UV-I 19 W/m 0,0 km/h (0 Bft)
07.04.2014 07:30 13,7 C 12,2 C 91 % 1016,4 hPa 0,0 l/m 0 min 0 min 0,0 UV-I 21 W/m 0,0 km/h (0 Bft)
07.04.2014 07:32 13,7 C 12,2 C 91 % 1016,4 hPa 0,0 l/m 0 min 0 min 0,0 UV-I 23 W/m 0,0 km/h (0 Bft)
07.04.2014 07:34 13,7 C 12,2 C 91 % 1016,4 hPa 0,0 l/m 0 min 0 min 0,0 UV-I 25 W/m 0,0 km/h (0 Bft)
07.04.2014 07:36 13,8 C 12,2 C 91 % 1016,4 hPa 0,0 l/m 0 min 0 min 0,0 UV-I 25 W/m 0,0 km/h (0 Bft)
07.04.2014 07:38 13,8 C 12,2 C 91 % 1016,4 hPa 0,0 l/m 0 min 0 min 0,0 UV-I 25 W/m 0,0 km/h (0 Bft)
07.04.2014 07:40 13,8 C 12,2 C 91 % 1016,5 hPa 0,0 l/m 0 min 0 min 0,0 UV-I 25 W/m 0,0 km/h (0 Bft)
07.04.2014 07:42 13,8 C 12,2 C 91 % 1016,5 hPa 0,0 l/m 0 min 0 min 0,0 UV-I 26 W/m 0,0 km/h (0 Bft)
07.04.2014 07:44 13,9 C 12,2 C 91 % 1016,5 hPa 0,0 l/m 0 min 0 min 0,0 UV-I 30 W/m 0,0 km/h (0 Bft)
07.04.2014 07:46 13,9 C 12,2 C 91 % 1016,5 hPa 0,0 l/m 0 min 0 min 0,0 UV-I 26 W/m 0,0 km/h (0 Bft)
07.04.2014 07:48 13,9 C 12,2 C 91 % 1016,6 hPa 0,0 l/m 0 min 0 min 0,0 UV-I 26 W/m 0,0 km/h (0 Bft)
07.04.2014 07:50 13,9 C 12,2 C 91 % 1016,5 hPa 0,0 l/m 0 min 0 min 0,0 UV-I 28 W/m 0,0 km/h (0 Bft)
07.04.2014 07:52 14,0 C 12,8 C 91 % 1016,5 hPa 0,0 l/m 0 min 0 min 0,0 UV-I 33 W/m 0,0 km/h (0 Bft)
07.04.2014 07:54 14,0 C 12,8 C 91 % 1016,5 hPa 0,0 l/m 0 min 0 min 0,0 UV-I 32 W/m 0,0 km/h (0 Bft)
07.04.2014 07:56 14,1 C 12,8 C 91 % 1016,4 hPa 0,0 l/m 0 min 0 min 0,0 UV-I 33 W/m 0,0 km/h (0 Bft)
07.04.2014 07:58 14,1 C 12,8 C 91 % 1016,5 hPa 0,0 l/m 0 min 0 min 0,0 UV-I 39 W/m 0,0 km/h (0 Bft)
07.04.2014 08:00 14,1 C 12,8 C 91 % 1016,5 hPa 0,0 l/m 0 min 0 min 0,0 UV-I 40 W/m 0,0 km/h (0 Bft)
07.04.2014 08:02 14,2 C 12,8 C 91 % 1016,5 hPa 0,0 l/m 0 min 0 min 0,0 UV-I 42 W/m 0,0 km/h (0 Bft)
07.04.2014 08:04 14,2 C 12,8 C 91 % 1016,5 hPa 0,0 l/m 0 min 0 min 0,0 UV-I 44 W/m 0,0 km/h (0 Bft)
07.04.2014 08:06 14,2 C 12,8 C 91 % 1016,5 hPa 0,0 l/m 0 min 0 min 0,0 UV-I 49 W/m 0,0 km/h (0 Bft)
07.04.2014 08:08 14,2 C 12,8 C 91 % 1016,5 hPa 0,0 l/m 0 min 0 min 0,0 UV-I 51 W/m 0,0 km/h (0 Bft)
07.04.2014 08:10 14,2 C 12,8 C 91 % 1016,4 hPa 0,0 l/m 0 min 0 min 0,0 UV-I 53 W/m 0,0 km/h (0 Bft)
07.04.2014 08:12 14,3 C 12,8 C 91 % 1016,4 hPa 0,0 l/m 0 min 0 min 0,0 UV-I 62 W/m 0,0 km/h (0 Bft)
07.04.2014 08:14 14,3 C 13,3 C 91 % 1016,4 hPa 0,0 l/m 0 min 0 min 0,0 UV-I 77 W/m 0,0 km/h (0 Bft)
07.04.2014 08:16 14,4 C 13,3 C 91 % 1016,3 hPa 0,0 l/m 0 min 0 min 0,0 UV-I 77 W/m 0,0 km/h (0 Bft)
07.04.2014 08:18 14,5 C 13,3 C 90 % 1016,4 hPa 0,0 l/m 0 min 0 min 0,0 UV-I 81 W/m 0,0 km/h (0 Bft)
07.04.2014 08:20 14,6 C 13,3 C 90 % 1016,3 hPa 0,0 l/m 0 min 0 min 0,0 UV-I 93 W/m 7,7 km/h (2 Bft)
07.04.2014 08:22 14,7 C 13,9 C 90 % 1016,3 hPa 0,0 l/m 0 min 0 min 0,0 UV-I 91 W/m 0,0 km/h (0 Bft)
07.04.2014 08:24 14,8 C 13,9 C 90 % 1016,4 hPa 0,0 l/m 0 min 0 min 0,0 UV-I 93 W/m 0,0 km/h (0 Bft)
07.04.2014 08:26 14,8 C 13,9 C 90 % 1016,3 hPa 0,0 l/m 0 min 0 min 0,0 UV-I 74 W/m 0,0 km/h (0 Bft)
07.04.2014 08:28 14,9 C 13,9 C 90 % 1016,4 hPa 0,0 l/m 0 min 0 min 0,0 UV-I 65 W/m 0,0 km/h (0 Bft)
07.04.2014 08:30 14,9 C 13,9 C 90 % 1016,4 hPa 0,0 l/m 0 min 0 min 0,0 UV-I 67 W/m 2,6 km/h (1 Bft)
07.04.2014 08:32 15,0 C 13,9 C 89 % 1016,3 hPa 0,0 l/m 0 min 0 min 0,0 UV-I 76 W/m 0,0 km/h (0 Bft)
07.04.2014 08:34 15,1 C 13,9 C 89 % 1016,3 hPa 0,0 l/m 0 min 0 min 0,0 UV-I 76 W/m 0,0 km/h (0 Bft)
07.04.2014 08:36 15,1 C 13,9 C 89 % 1016,3 hPa 0,0 l/m 0 min 0 min 0,0 UV-I 72 W/m 0,0 km/h (0 Bft)
07.04.2014 08:38 15,1 C 13,9 C 88 % 1016,3 hPa 0,0 l/m 0 min 0 min 0,0 UV-I 65 W/m 5,1 km/h (1 Bft)
07.04.2014 08:40 15,2 C 13,9 C 88 % 1016,3 hPa 0,0 l/m 0 min 0 min 0,0 UV-I 65 W/m 0,0 km/h (0 Bft)
07.04.2014 08:42 15,2 C 13,9 C 88 % 1016,3 hPa 0,0 l/m 0 min 0 min 0,0 UV-I 65 W/m 0,0 km/h (0 Bft)
07.04.2014 08:44 15,2 C 13,9 C 88 % 1016,3 hPa 0,0 l/m 0 min 0 min 0,0 UV-I 65 W/m 0,0 km/h (0 Bft)
07.04.2014 08:46 15,2 C 13,9 C 88 % 1016,2 hPa 0,0 l/m 0 min 0 min 0,0 UV-I 65 W/m 0,0 km/h (0 Bft)
07.04.2014 08:48 15,2 C 13,9 C 88 % 1016,2 hPa 0,0 l/m 0 min 0 min 0,0 UV-I 70 W/m 0,0 km/h (0 Bft)
07.04.2014 08:50 15,2 C 13,3 C 88 % 1016,2 hPa 0,0 l/m 0 min 0 min 0,0 UV-I 77 W/m 5,1 km/h (1 Bft)
07.04.2014 08:52 15,2 C 13,3 C 88 % 1016,2 hPa 0,0 l/m 0 min 0 min 0,0 UV-I 90 W/m 2,6 km/h (1 Bft)
07.04.2014 08:54 15,2 C 13,3 C 88 % 1016,3 hPa 0,0 l/m 0 min 0 min 0,0 UV-I 123 W/m 0,0 km/h (0 Bft)
07.04.2014 08:56 15,2 C 13,9 C 88 % 1016,2 hPa 0,0 l/m 0 min 0 min 0,0 UV-I 93 W/m 10,3 km/h (2 Bft)
07.04.2014 08:58 15,2 C 13,3 C 88 % 1016,2 hPa 0,0 l/m 0 min 0 min 0,0 UV-I 155 W/m 5,1 km/h (1 Bft)
07.04.2014 09:00 15,3 C 13,9 C 88 % 1016,2 hPa 0,0 l/m 2 min 0 min 0,0 UV-I 250 W/m 5,1 km/h (1 Bft)
07.04.2014 09:02 15,4 C 13,9 C 88 % 1016,2 hPa 0,0 l/m 2 min 0 min 0,0 UV-I 257 W/m 5,1 km/h (1 Bft)
07.04.2014 09:04 15,5 C 13,9 C 88 % 1016,2 hPa 0,0 l/m 2 min 0 min 0,0 UV-I 248 W/m 0,0 km/h (0 Bft)
07.04.2014 09:06 15,7 C 13,9 C 87 % 1016,3 hPa 0,0 l/m 2 min 0 min 0,0 UV-I 281 W/m 0,0 km/h (0 Bft)
07.04.2014 09:08 15,8 C 14,4 C 87 % 1016,3 hPa 0,0 l/m 2 min 0 min 0,0 UV-I 306 W/m 0,0 km/h (0 Bft)
07.04.2014 09:10 15,9 C 14,4 C 87 % 1016,3 hPa 0,0 l/m 2 min 0 min 0,0 UV-I 295 W/m 0,0 km/h (0 Bft)
07.04.2014 09:12 16,1 C 14,4 C 86 % 1016,4 hPa 0,0 l/m 2 min 0 min 0,0 UV-I 276 W/m 0,0 km/h (0 Bft)
07.04.2014 09:14 16,2 C 14,4 C 87 % 1016,3 hPa 0,0 l/m 2 min 0 min 0,0 UV-I 265 W/m 0,0 km/h (0 Bft)
07.04.2014 09:16 16,3 C 14,4 C 85 % 1016,3 hPa 0,0 l/m 2 min 0 min 0,0 UV-I 244 W/m 7,7 km/h (2 Bft)
07.04.2014 09:18 16,4 C 14,4 C 85 % 1016,3 hPa 0,0 l/m 2 min 0 min 0,0 UV-I 262 W/m 7,7 km/h (2 Bft)
07.04.2014 09:20 16,4 C 14,4 C 85 % 1016,3 hPa 0,0 l/m 2 min 0 min 0,0 UV-I 260 W/m 5,1 km/h (1 Bft)
07.04.2014 09:22 16,6 C 15,0 C 84 % 1016,3 hPa 0,0 l/m 2 min 0 min 0,0 UV-I 248 W/m 5,1 km/h (1 Bft)
07.04.2014 09:24 16,6 C 15,0 C 84 % 1016,3 hPa 0,0 l/m 2 min 0 min 0,0 UV-I 262 W/m 10,3 km/h (2 Bft)
07.04.2014 09:26 16,7 C 15,0 C 84 % 1016,3 hPa 0,0 l/m 2 min 0 min 0,0 UV-I 287 W/m 12,9 km/h (3 Bft)
07.04.2014 09:28 16,7 C 15,0 C 84 % 1016,2 hPa 0,0 l/m 2 min 0 min 0,0 UV-I 292 W/m 0,0 km/h (0 Bft)
07.04.2014 09:30 16,8 C 15,0 C 83 % 1016,2 hPa 0,0 l/m 2 min 0 min 0,0 UV-I 281 W/m 12,9 km/h (3 Bft)
07.04.2014 09:32 16,8 C 15,6 C 83 % 1016,3 hPa 0,0 l/m 2 min 0 min 0,0 UV-I 287 W/m 12,9 km/h (3 Bft)
07.04.2014 09:34 16,8 C 15,6 C 83 % 1016,2 hPa 0,0 l/m 2 min 0 min 0,5 UV-I 334 W/m 2,6 km/h (1 Bft)
07.04.2014 09:36 16,9 C 15,6 C 83 % 1016,2 hPa 0,0 l/m 2 min 0 min 0,5 UV-I 367 W/m 0,0 km/h (0 Bft)
07.04.2014 09:38 16,9 C 15,6 C 83 % 1016,2 hPa 0,0 l/m 2 min 0 min 0,5 UV-I 376 W/m 10,3 km/h (2 Bft)
07.04.2014 09:40 17,1 C 15,6 C 82 % 1016,2 hPa 0,0 l/m 2 min 0 min 0,5 UV-I 364 W/m 15,4 km/h (3 Bft)
07.04.2014 09:42 17,2 C 15,6 C 81 % 1016,2 hPa 0,0 l/m 2 min 0 min 0,6 UV-I 343 W/m 10,3 km/h (2 Bft)
07.04.2014 09:44 17,2 C 15,6 C 81 % 1016,1 hPa 0,0 l/m 2 min 0 min 0,0 UV-I 343 W/m 7,7 km/h (2 Bft)
07.04.2014 09:46 17,2 C 15,6 C 82 % 1016,1 hPa 0,0 l/m 0 min 0 min 0,6 UV-I 153 W/m 10,3 km/h (2 Bft)
07.04.2014 09:48 17,3 C 15,6 C 82 % 1016,1 hPa 0,0 l/m 2 min 0 min 0,6 UV-I 367 W/m 2,6 km/h (1 Bft)
07.04.2014 09:50 17,3 C 15,6 C 82 % 1016,1 hPa 0,0 l/m 2 min 0 min 0,6 UV-I 359 W/m 10,3 km/h (2 Bft)
07.04.2014 09:52 17,3 C 15,6 C 81 % 1016,1 hPa 0,0 l/m 2 min 0 min 0,5 UV-I 359 W/m 5,1 km/h (1 Bft)
07.04.2014 09:54 17,4 C 15,6 C 82 % 1016,1 hPa 0,0 l/m 2 min 0 min 0,7 UV-I 334 W/m 2,6 km/h (1 Bft)
07.04.2014 09:56 17,6 C 15,6 C 81 % 1016,0 hPa 0,0 l/m 2 min 0 min 0,7 UV-I 380 W/m 20,6 km/h (4 Bft)
07.04.2014 09:58 17,7 C 15,6 C 80 % 1016,0 hPa 0,0 l/m 2 min 0 min 0,7 UV-I 371 W/m 10,3 km/h (2 Bft)
07.04.2014 10:00 17,8 C 16,1 C 80 % 1016,0 hPa 0,0 l/m 2 min 0 min 0,8 UV-I 396 W/m 10,3 km/h (2 Bft)
07.04.2014 10:02 17,7 C 16,1 C 80 % 1016,0 hPa 0,0 l/m 2 min 0 min 0,8 UV-I 376 W/m 2,6 km/h (1 Bft)
07.04.2014 10:04 17,8 C 16,1 C 79 % 1016,1 hPa 0,0 l/m 2 min 0 min 0,8 UV-I 369 W/m 10,3 km/h (2 Bft)
07.04.2014 10:06 17,9 C 16,1 C 79 % 1016,1 hPa 0,0 l/m 2 min 0 min 0,8 UV-I 353 W/m 15,4 km/h (3 Bft)
07.04.2014 10:08 17,8 C 16,1 C 79 % 1015,9 hPa 0,0 l/m 2 min 0 min 0,8 UV-I 371 W/m 2,6 km/h (1 Bft)
07.04.2014 10:10 17,8 C 16,1 C 79 % 1015,9 hPa 0,0 l/m 2 min 0 min 0,8 UV-I 359 W/m 10,3 km/h (2 Bft)
07.04.2014 10:12 17,9 C 16,1 C 80 % 1015,9 hPa 0,0 l/m 2 min 0 min 0,9 UV-I 399 W/m 2,6 km/h (1 Bft)
07.04.2014 10:14 17,9 C 16,1 C 79 % 1015,8 hPa 0,0 l/m 2 min 0 min 0,9 UV-I 396 W/m 7,7 km/h (2 Bft)
07.04.2014 10:16 18,0 C 16,1 C 79 % 1015,8 hPa 0,0 l/m 2 min 0 min 0,9 UV-I 408 W/m 15,4 km/h (3 Bft)
07.04.2014 10:18 18,1 C 16,1 C 78 % 1015,8 hPa 0,0 l/m 2 min 0 min 1,0 UV-I 439 W/m 2,6 km/h (1 Bft)
07.04.2014 10:20 18,2 C 16,1 C 78 % 1015,8 hPa 0,0 l/m 2 min 0 min 1,0 UV-I 454 W/m 2,6 km/h (1 Bft)
07.04.2014 10:22 18,3 C 16,7 C 78 % 1015,8 hPa 0,0 l/m 2 min 0 min 1,1 UV-I 496 W/m 10,3 km/h (2 Bft)
07.04.2014 10:24 18,5 C 17,2 C 78 % 1015,8 hPa 0,0 l/m 2 min 0 min 1,1 UV-I 459 W/m 5,1 km/h (1 Bft)
07.04.2014 10:26 18,7 C 17,2 C 77 % 1015,9 hPa 0,0 l/m 2 min 0 min 1,0 UV-I 462 W/m 15,4 km/h (3 Bft)
07.04.2014 10:28 18,7 C 17,8 C 76 % 1015,9 hPa 0,0 l/m 2 min 0 min 0,9 UV-I 343 W/m 7,7 km/h (2 Bft)
07.04.2014 10:30 18,7 C 17,8 C 76 % 1015,8 hPa 0,0 l/m 0 min 0 min 0,7 UV-I 257 W/m 7,7 km/h (2 Bft)
07.04.2014 10:32 18,6 C 17,8 C 76 % 1015,9 hPa 0,0 l/m 0 min 0 min 0,7 UV-I 221 W/m 10,3 km/h (2 Bft)
07.04.2014 10:34 18,5 C 17,2 C 76 % 1015,9 hPa 0,0 l/m 0 min 0 min 0,7 UV-I 223 W/m 12,9 km/h (3 Bft)
07.04.2014 10:36 18,4 C 17,2 C 77 % 1015,9 hPa 0,0 l/m 0 min 0 min 0,7 UV-I 248 W/m 12,9 km/h (3 Bft)
07.04.2014 10:38 18,4 C 17,2 C 77 % 1015,8 hPa 0,0 l/m 0 min 0 min 0,7 UV-I 243 W/m 10,3 km/h (2 Bft)
07.04.2014 10:40 18,3 C 17,2 C 77 % 1015,8 hPa 0,0 l/m 0 min 0 min 0,7 UV-I 243 W/m 12,9 km/h (3 Bft)
07.04.2014 10:42 18,3 C 17,8 C 77 % 1015,8 hPa 0,0 l/m 0 min 0 min 0,8 UV-I 264 W/m 7,7 km/h (2 Bft)
07.04.2014 10:44 18,3 C 17,8 C 77 % 1015,9 hPa 0,0 l/m 0 min 0 min 0,8 UV-I 290 W/m 15,4 km/h (3 Bft)
07.04.2014 10:46 18,3 C 17,8 C 77 % 1015,9 hPa 0,0 l/m 0 min 0 min 0,8 UV-I 285 W/m 10,3 km/h (2 Bft)
07.04.2014 10:48 18,4 C 17,8 C 77 % 1015,9 hPa 0,0 l/m 0 min 0 min 0,7 UV-I 267 W/m 10,3 km/h (2 Bft)
07.04.2014 10:50 18,4 C 17,8 C 77 % 1015,9 hPa 0,0 l/m 0 min 0 min 0,8 UV-I 269 W/m 0,0 km/h (0 Bft)
07.04.2014 10:52 18,4 C 17,8 C 76 % 1016,0 hPa 0,0 l/m 0 min 0 min 0,8 UV-I 276 W/m 10,3 km/h (2 Bft)
07.04.2014 10:54 18,4 C 17,8 C 76 % 1015,9 hPa 0,0 l/m 0 min 0 min 0,9 UV-I 281 W/m 7,7 km/h (2 Bft)
07.04.2014 10:56 18,4 C 17,8 C 76 % 1015,8 hPa 0,0 l/m 0 min 0 min 0,9 UV-I 295 W/m 10,3 km/h (2 Bft)
07.04.2014 10:58 18,4 C 18,3 C 77 % 1015,9 hPa 0,0 l/m 0 min 0 min 1,0 UV-I 308 W/m 7,7 km/h (2 Bft)
07.04.2014 11:00 18,4 C 17,8 C 75 % 1015,9 hPa 0,0 l/m 0 min 0 min 1,0 UV-I 304 W/m 18,0 km/h (3 Bft)
07.04.2014 11:02 18,4 C 17,8 C 75 % 1015,9 hPa 0,0 l/m 0 min 0 min 1,0 UV-I 297 W/m 12,9 km/h (3 Bft)
07.04.2014 11:04 18,4 C 18,3 C 75 % 1015,8 hPa 0,0 l/m 2 min 0 min 1,1 UV-I 369 W/m 12,9 km/h (3 Bft)
07.04.2014 11:06 18,6 C 18,3 C 76 % 1015,8 hPa 0,0 l/m 2 min 0 min 1,2 UV-I 357 W/m 10,3 km/h (2 Bft)
07.04.2014 11:08 18,7 C 18,3 C 75 % 1015,8 hPa 0,0 l/m 2 min 0 min 1,4 UV-I 445 W/m 2,6 km/h (1 Bft)
07.04.2014 11:10 18,9 C 18,3 C 75 % 1015,7 hPa 0,0 l/m 0 min 0 min 1,4 UV-I 272 W/m 2,6 km/h (1 Bft)
07.04.2014 11:12 19,1 C 18,3 C 74 % 1015,7 hPa 0,0 l/m 0 min 0 min 1,2 UV-I 288 W/m 10,3 km/h (2 Bft)
07.04.2014 11:14 19,1 C 18,3 C 73 % 1015,7 hPa 0,0 l/m 0 min 0 min 1,6 UV-I 288 W/m 12,9 km/h (3 Bft)
07.04.2014 11:16 19,2 C 18,3 C 73 % 1015,7 hPa 0,0 l/m 2 min 0 min 1,6 UV-I 392 W/m 10,3 km/h (2 Bft)
07.04.2014 11:18 19,2 C 18,3 C 72 % 1015,7 hPa 0,0 l/m 2 min 0 min 1,3 UV-I 366 W/m 18,0 km/h (3 Bft)
07.04.2014 11:20 19,3 C 18,3 C 74 % 1015,5 hPa 0,0 l/m 0 min 0 min 1,3 UV-I 315 W/m 12,9 km/h (3 Bft)
07.04.2014 11:22 19,4 C 18,3 C 73 % 1015,6 hPa 0,0 l/m 2 min 0 min 1,5 UV-I 422 W/m 10,3 km/h (2 Bft)
07.04.2014 11:24 19,4 C 18,9 C 72 % 1015,6 hPa 0,0 l/m 2 min 0 min 1,3 UV-I 350 W/m 2,6 km/h (1 Bft)
07.04.2014 11:26 19,4 C 18,9 C 73 % 1015,5 hPa 0,0 l/m 0 min 0 min 1,3 UV-I 311 W/m 12,9 km/h (3 Bft)
07.04.2014 11:28 19,3 C 18,9 C 73 % 1015,5 hPa 0,0 l/m 2 min 0 min 1,4 UV-I 376 W/m 12,9 km/h (3 Bft)
07.04.2014 11:30 19,3 C 18,9 C 73 % 1015,4 hPa 0,0 l/m 0 min 0 min 1,3 UV-I 288 W/m 18,0 km/h (3 Bft)
07.04.2014 11:32 19,2 C 18,3 C 72 % 1015,4 hPa 0,0 l/m 0 min 0 min 1,3 UV-I 271 W/m 12,9 km/h (3 Bft)
07.04.2014 11:34 19,1 C 18,3 C 72 % 1015,4 hPa 0,0 l/m 0 min 0 min 1,3 UV-I 262 W/m 12,9 km/h (3 Bft)
07.04.2014 11:36 19,0 C 18,3 C 72 % 1015,4 hPa 0,0 l/m 0 min 0 min 1,3 UV-I 278 W/m 7,7 km/h (2 Bft)
07.04.2014 11:38 19,0 C 18,3 C 73 % 1015,4 hPa 0,0 l/m 0 min 0 min 1,4 UV-I 322 W/m 0,0 km/h (0 Bft)
07.04.2014 11:40 19,2 C 18,3 C 73 % 1015,4 hPa 0,0 l/m 2 min 0 min 1,5 UV-I 401 W/m 2,6 km/h (1 Bft)
07.04.2014 11:42 19,4 C 18,9 C 73 % 1015,4 hPa 0,0 l/m 2 min 0 min 1,9 UV-I 413 W/m 2,6 km/h (1 Bft)
07.04.2014 11:44 19,6 C 18,9 C 73 % 1015,3 hPa 0,0 l/m 2 min 0 min 2,1 UV-I 613 W/m 10,3 km/h (2 Bft)
07.04.2014 11:46 19,7 C 18,9 C 71 % 1015,3 hPa 0,0 l/m 2 min 0 min 2,1 UV-I 591 W/m 12,9 km/h (3 Bft)
07.04.2014 11:48 19,8 C 19,4 C 70 % 1015,3 hPa 0,0 l/m 2 min 0 min 1,7 UV-I 527 W/m 7,7 km/h (2 Bft)
07.04.2014 11:50 19,9 C 19,4 C 70 % 1015,2 hPa 0,0 l/m 0 min 0 min 1,6 UV-I 336 W/m 7,7 km/h (2 Bft)
07.04.2014 11:52 19,9 C 19,4 C 71 % 1015,2 hPa 0,0 l/m 2 min 0 min 2,1 UV-I 418 W/m 18,0 km/h (3 Bft)
07.04.2014 11:54 20,2 C 19,4 C 71 % 1015,2 hPa 0,0 l/m 2 min 0 min 1,6 UV-I 483 W/m 18,0 km/h (3 Bft)
07.04.2014 11:56 20,3 C 19,4 C 70 % 1015,1 hPa 0,0 l/m 2 min 0 min 1,9 UV-I 452 W/m 10,3 km/h (2 Bft)
07.04.2014 11:58 20,3 C 20,0 C 70 % 1015,1 hPa 0,0 l/m 2 min 0 min 1,9 UV-I 466 W/m 5,1 km/h (1 Bft)
07.04.2014 12:00 20,4 C 20,0 C 70 % 1015,0 hPa 0,0 l/m 2 min 0 min 1,8 UV-I 480 W/m 7,7 km/h (2 Bft)
07.04.2014 12:02 20,6 C 20,0 C 68 % 1015,0 hPa 0,0 l/m 2 min 0 min 2,2 UV-I 438 W/m 0,0 km/h (0 Bft)
07.04.2014 12:06 20,7 C 20,0 C 66 % 1015,0 hPa 0,0 l/m 2 min 0 min 2,3 UV-I 573 W/m 12,9 km/h (3 Bft)
07.04.2014 12:08 20,6 C 20,0 C 67 % 1014,9 hPa 0,0 l/m 2 min 0 min 2,3 UV-I 606 W/m 5,1 km/h (1 Bft)
07.04.2014 12:10 20,8 C 20,0 C 68 % 1014,9 hPa 0,0 l/m 2 min 0 min 2,1 UV-I 543 W/m 18,0 km/h (3 Bft)
07.04.2014 12:12 20,9 C 20,0 C 67 % 1014,9 hPa 0,0 l/m 2 min 0 min 2,3 UV-I 580 W/m 12,9 km/h (3 Bft)
07.04.2014 12:14 21,0 C 20,6 C 67 % 1014,9 hPa 0,0 l/m 2 min 0 min 1,7 UV-I 561 W/m 2,6 km/h (1 Bft)
07.04.2014 12:16 21,0 C 20,6 C 66 % 1014,8 hPa 0,0 l/m 2 min 0 min 2,3 UV-I 608 W/m 18,0 km/h (3 Bft)
07.04.2014 12:18 21,0 C 20,6 C 65 % 1014,8 hPa 0,0 l/m 2 min 0 min 2,3 UV-I 596 W/m 7,7 km/h (2 Bft)
07.04.2014 12:20 21,1 C 20,6 C 65 % 1014,8 hPa 0,0 l/m 2 min 0 min 2,3 UV-I 584 W/m 10,3 km/h (2 Bft)
07.04.2014 12:22 21,2 C 20,6 C 64 % 1014,7 hPa 0,0 l/m 2 min 0 min 2,3 UV-I 571 W/m 12,9 km/h (3 Bft)
07.04.2014 12:24 21,2 C 20,6 C 63 % 1014,7 hPa 0,0 l/m 2 min 0 min 2,3 UV-I 596 W/m 10,3 km/h (2 Bft)
07.04.2014 12:26 21,2 C 20,6 C 63 % 1014,7 hPa 0,0 l/m 2 min 0 min 2,2 UV-I 520 W/m 7,7 km/h (2 Bft)
07.04.2014 12:28 21,2 C 20,6 C 62 % 1014,6 hPa 0,0 l/m 2 min 0 min 2,2 UV-I 550 W/m 10,3 km/h (2 Bft)
07.04.2014 12:30 21,3 C 20,6 C 64 % 1014,6 hPa 0,0 l/m 2 min 0 min 2,3 UV-I 563 W/m 23,2 km/h (4 Bft)
07.04.2014 12:32 21,3 C 20,6 C 64 % 1014,6 hPa 0,0 l/m 2 min 0 min 2,3 UV-I 626 W/m 12,9 km/h (3 Bft)
07.04.2014 12:34 21,4 C 21,1 C 64 % 1014,6 hPa 0,0 l/m 2 min 0 min 2,1 UV-I 520 W/m 5,1 km/h (1 Bft)
07.04.2014 12:36 21,4 C 21,1 C 62 % 1014,5 hPa 0,0 l/m 2 min 0 min 2,3 UV-I 587 W/m 10,3 km/h (2 Bft)
07.04.2014 12:38 21,5 C 21,1 C 64 % 1014,5 hPa 0,0 l/m 2 min 0 min 2,3 UV-I 533 W/m 7,7 km/h (2 Bft)
07.04.2014 12:40 21,6 C 21,1 C 62 % 1014,5 hPa 0,0 l/m 2 min 0 min 2,4 UV-I 613 W/m 12,9 km/h (3 Bft)
07.04.2014 12:42 21,4 C 21,1 C 61 % 1014,5 hPa 0,0 l/m 2 min 0 min 2,4 UV-I 640 W/m 5,1 km/h (1 Bft)
07.04.2014 12:44 21,3 C 21,1 C 63 % 1014,4 hPa 0,0 l/m 2 min 0 min 2,2 UV-I 510 W/m 10,3 km/h (2 Bft)
07.04.2014 12:46 21,4 C 21,7 C 63 % 1014,4 hPa 0,0 l/m 2 min 0 min 2,3 UV-I 575 W/m 15,4 km/h (3 Bft)
07.04.2014 12:48 21,5 C 21,7 C 65 % 1014,4 hPa 0,0 l/m 2 min 0 min 2,5 UV-I 575 W/m 20,6 km/h (4 Bft)
07.04.2014 12:50 21,6 C 21,7 C 63 % 1014,4 hPa 0,0 l/m 2 min 0 min 2,3 UV-I 603 W/m 15,4 km/h (3 Bft)
07.04.2014 12:52 21,7 C 21,7 C 63 % 1014,3 hPa 0,0 l/m 2 min 0 min 2,2 UV-I 659 W/m 2,6 km/h (1 Bft)
07.04.2014 12:54 21,7 C 22,2 C 64 % 1014,3 hPa 0,0 l/m 2 min 0 min 2,1 UV-I 589 W/m 15,4 km/h (3 Bft)
07.04.2014 12:56 21,8 C 21,7 C 64 % 1014,3 hPa 0,0 l/m 2 min 0 min 1,9 UV-I 450 W/m 25,7 km/h (4 Bft)
07.04.2014 12:58 21,6 C 21,7 C 64 % 1014,3 hPa 0,0 l/m 2 min 0 min 2,1 UV-I 464 W/m 12,9 km/h (3 Bft)
07.04.2014 13:00 21,6 C 22,2 C 63 % 1014,3 hPa 0,0 l/m 2 min 0 min 2,0 UV-I 670 W/m 12,9 km/h (3 Bft)
07.04.2014 13:02 21,6 C 21,7 C 62 % 1014,3 hPa 0,0 l/m 2 min 0 min 1,9 UV-I 657 W/m 15,4 km/h (3 Bft)
07.04.2014 13:04 21,7 C 21,7 C 64 % 1014,3 hPa 0,0 l/m 0 min 0 min 1,8 UV-I 374 W/m 15,4 km/h (3 Bft)
07.04.2014 13:06 21,5 C 21,7 C 64 % 1014,2 hPa 0,0 l/m 2 min 0 min 1,8 UV-I 394 W/m 2,6 km/h (1 Bft)
07.04.2014 13:08 21,3 C 21,7 C 63 % 1014,1 hPa 0,0 l/m 2 min 0 min 1,9 UV-I 454 W/m 15,4 km/h (3 Bft)
07.04.2014 13:10 21,3 C 21,7 C 64 % 1014,2 hPa 0,0 l/m 2 min 0 min 1,9 UV-I 417 W/m 7,7 km/h (2 Bft)
07.04.2014 13:12 21,4 C 21,7 C 64 % 1014,1 hPa 0,0 l/m 2 min 0 min 1,9 UV-I 399 W/m 20,6 km/h (4 Bft)
07.04.2014 13:14 21,7 C 22,2 C 64 % 1014,1 hPa 0,0 l/m 2 min 0 min 1,9 UV-I 584 W/m 12,9 km/h (3 Bft)
07.04.2014 13:16 21,8 C 22,2 C 64 % 1014,0 hPa 0,0 l/m 2 min 0 min 1,9 UV-I 527 W/m 18,0 km/h (3 Bft)
07.04.2014 13:18 21,9 C 21,7 C 63 % 1014,0 hPa 0,0 l/m 2 min 0 min 1,9 UV-I 436 W/m 15,4 km/h (3 Bft)
07.04.2014 13:20 21,7 C 21,7 C 61 % 1014,0 hPa 0,0 l/m 2 min 0 min 2,0 UV-I 534 W/m 18,0 km/h (3 Bft)
07.04.2014 13:22 21,8 C 21,7 C 63 % 1013,9 hPa 0,0 l/m 2 min 0 min 2,0 UV-I 629 W/m 18,0 km/h (3 Bft)
07.04.2014 13:24 21,8 C 21,7 C 62 % 1014,0 hPa 0,0 l/m 2 min 0 min 2,0 UV-I 480 W/m 15,4 km/h (3 Bft)
07.04.2014 13:26 21,8 C 21,7 C 61 % 1013,9 hPa 0,0 l/m 2 min 0 min 1,9 UV-I 439 W/m 12,9 km/h (3 Bft)
07.04.2014 13:28 21,7 C 21,7 C 61 % 1013,8 hPa 0,0 l/m 2 min 0 min 1,9 UV-I 436 W/m 18,0 km/h (3 Bft)
07.04.2014 13:30 21,7 C 21,7 C 63 % 1013,8 hPa 0,0 l/m 2 min 0 min 1,9 UV-I 441 W/m 12,9 km/h (3 Bft)
07.04.2014 13:32 21,7 C 21,7 C 63 % 1013,8 hPa 0,0 l/m 2 min 0 min 1,9 UV-I 445 W/m 10,3 km/h (2 Bft)
07.04.2014 13:34 21,8 C 21,7 C 63 % 1013,8 hPa 0,0 l/m 2 min 0 min 1,9 UV-I 403 W/m 18,0 km/h (3 Bft)
07.04.2014 13:36 21,6 C 21,7 C 64 % 1013,8 hPa 0,0 l/m 0 min 0 min 1,8 UV-I 336 W/m 18,0 km/h (3 Bft)
07.04.2014 13:38 21,5 C 21,7 C 64 % 1013,8 hPa 0,0 l/m 0 min 0 min 1,7 UV-I 327 W/m 18,0 km/h (3 Bft)
07.04.2014 13:40 21,3 C 21,1 C 64 % 1013,7 hPa 0,0 l/m 0 min 0 min 1,6 UV-I 290 W/m 15,4 km/h (3 Bft)
07.04.2014 13:42 21,2 C 21,1 C 65 % 1013,7 hPa 0,0 l/m 0 min 0 min 1,5 UV-I 255 W/m 7,7 km/h (2 Bft)
07.04.2014 13:44 21,1 C 21,1 C 66 % 1013,7 hPa 0,0 l/m 0 min 0 min 1,4 UV-I 272 W/m 7,7 km/h (2 Bft)
07.04.2014 13:46 21,2 C 21,1 C 66 % 1013,7 hPa 0,0 l/m 0 min 0 min 1,6 UV-I 346 W/m 10,3 km/h (2 Bft)
07.04.2014 13:48 21,3 C 21,1 C 66 % 1013,6 hPa 0,0 l/m 2 min 0 min 2,6 UV-I 817 W/m 10,3 km/h (2 Bft)
07.04.2014 13:50 21,7 C 21,7 C 64 % 1013,5 hPa 0,0 l/m 2 min 0 min 2,8 UV-I 766 W/m 5,1 km/h (1 Bft)
07.04.2014 13:52 22,1 C 21,7 C 59 % 1013,5 hPa 0,0 l/m 2 min 0 min 2,9 UV-I 765 W/m 10,3 km/h (2 Bft)
07.04.2014 13:54 22,3 C 21,7 C 60 % 1013,4 hPa 0,0 l/m 2 min 0 min 2,9 UV-I 754 W/m 18,0 km/h (3 Bft)
07.04.2014 13:56 22,5 C 21,7 C 59 % 1013,5 hPa 0,0 l/m 2 min 0 min 2,2 UV-I 519 W/m 18,0 km/h (3 Bft)
07.04.2014 13:58 22,6 C 21,7 C 60 % 1013,4 hPa 0,0 l/m 2 min 0 min 1,8 UV-I 540 W/m 23,2 km/h (4 Bft)
07.04.2014 14:00 22,4 C 21,7 C 59 % 1013,3 hPa 0,0 l/m 0 min 0 min 2,2 UV-I 220 W/m 23,2 km/h (4 Bft)
07.04.2014 14:02 22,2 C 21,1 C 59 % 1013,3 hPa 0,0 l/m 0 min 0 min 1,5 UV-I 246 W/m 18,0 km/h (3 Bft)
07.04.2014 14:04 21,8 C 20,6 C 61 % 1013,3 hPa 0,0 l/m 0 min 0 min 2,5 UV-I 257 W/m 18,0 km/h (3 Bft)
07.04.2014 14:06 21,9 C 21,1 C 63 % 1013,4 hPa 0,0 l/m 2 min 0 min 2,6 UV-I 793 W/m 20,6 km/h (4 Bft)
07.04.2014 14:08 22,0 C 21,7 C 61 % 1013,4 hPa 0,0 l/m 2 min 0 min 2,3 UV-I 766 W/m 20,6 km/h (4 Bft)
07.04.2014 14:10 22,1 C 21,7 C 63 % 1013,3 hPa 0,0 l/m 2 min 0 min 1,7 UV-I 708 W/m 12,9 km/h (3 Bft)
07.04.2014 14:12 22,1 C 21,7 C 63 % 1013,3 hPa 0,0 l/m 2 min 0 min 2,1 UV-I 438 W/m 25,7 km/h (4 Bft)
07.04.2014 14:14 22,0 C 21,1 C 62 % 1013,3 hPa 0,0 l/m 2 min 0 min 1,9 UV-I 438 W/m 25,7 km/h (4 Bft)
07.04.2014 14:16 22,1 C 21,7 C 65 % 1013,2 hPa 0,0 l/m 2 min 0 min 2,7 UV-I 765 W/m 12,9 km/h (3 Bft)
07.04.2014 14:18 22,4 C 21,7 C 64 % 1013,1 hPa 0,0 l/m 2 min 0 min 2,4 UV-I 664 W/m 23,2 km/h (4 Bft)
07.04.2014 14:20 22,4 C 21,7 C 62 % 1013,2 hPa 0,0 l/m 0 min 0 min 1,3 UV-I 213 W/m 25,7 km/h (4 Bft)
07.04.2014 14:22 22,2 C 21,7 C 62 % 1013,1 hPa 0,0 l/m 0 min 0 min 1,2 UV-I 211 W/m 25,7 km/h (4 Bft)
07.04.2014 14:24 22,0 C 21,1 C 61 % 1013,2 hPa 0,0 l/m 0 min 0 min 1,2 UV-I 230 W/m 20,6 km/h (4 Bft)
07.04.2014 14:26 21,8 C 21,1 C 62 % 1013,1 hPa 0,0 l/m 0 min 0 min 2,4 UV-I 248 W/m 18,0 km/h (3 Bft)
07.04.2014 14:28 21,9 C 21,7 C 63 % 1013,0 hPa 0,0 l/m 2 min 0 min 2,5 UV-I 700 W/m 12,9 km/h (3 Bft)
07.04.2014 14:30 22,3 C 21,7 C 64 % 1012,9 hPa 0,0 l/m 2 min 0 min 2,6 UV-I 710 W/m 12,9 km/h (3 Bft)
07.04.2014 14:32 22,7 C 22,2 C 61 % 1012,9 hPa 0,0 l/m 2 min 0 min 1,7 UV-I 668 W/m 18,0 km/h (3 Bft)
07.04.2014 14:34 22,7 C 21,7 C 59 % 1012,9 hPa 0,0 l/m 2 min 0 min 2,3 UV-I 522 W/m 20,6 km/h (4 Bft)
07.04.2014 14:36 22,7 C 21,7 C 57 % 1012,9 hPa 0,0 l/m 2 min 0 min 2,5 UV-I 677 W/m 25,7 km/h (4 Bft)
07.04.2014 14:38 22,6 C 21,7 C 59 % 1012,8 hPa 0,0 l/m 2 min 0 min 2,6 UV-I 677 W/m 15,4 km/h (3 Bft)
07.04.2014 14:40 22,6 C 21,7 C 56 % 1012,8 hPa 0,0 l/m 0 min 0 min 1,5 UV-I 306 W/m 18,0 km/h (3 Bft)
07.04.2014 14:42 22,2 C 21,1 C 56 % 1012,8 hPa 0,0 l/m 0 min 0 min 1,3 UV-I 246 W/m 15,4 km/h (3 Bft)
07.04.2014 14:44 21,9 C 21,1 C 57 % 1012,7 hPa 0,0 l/m 0 min 0 min 1,1 UV-I 229 W/m 28,3 km/h (4 Bft)
07.04.2014 14:46 21,7 C 21,1 C 58 % 1012,7 hPa 0,0 l/m 0 min 0 min 1,0 UV-I 227 W/m 15,4 km/h (3 Bft)
07.04.2014 14:48 21,5 C 20,6 C 59 % 1012,7 hPa 0,0 l/m 0 min 0 min 0,9 UV-I 230 W/m 15,4 km/h (3 Bft)
07.04.2014 14:50 21,4 C 20,6 C 59 % 1012,7 hPa 0,0 l/m 0 min 0 min 1,1 UV-I 265 W/m 23,2 km/h (4 Bft)
07.04.2014 14:52 21,4 C 20,6 C 61 % 1012,6 hPa 0,0 l/m 0 min 0 min 1,1 UV-I 262 W/m 18,0 km/h (3 Bft)
07.04.2014 14:54 21,5 C 21,1 C 60 % 1012,6 hPa 0,0 l/m 0 min 0 min 1,0 UV-I 257 W/m 5,1 km/h (1 Bft)
07.04.2014 14:56 21,5 C 21,1 C 62 % 1012,6 hPa 0,0 l/m 0 min 0 min 1,0 UV-I 257 W/m 10,3 km/h (2 Bft)
07.04.2014 14:58 21,6 C 21,1 C 62 % 1012,4 hPa 0,0 l/m 0 min 0 min 1,2 UV-I 320 W/m 20,6 km/h (4 Bft)
07.04.2014 15:00 21,7 C 21,1 C 62 % 1012,4 hPa 0,0 l/m 0 min 0 min 1,1 UV-I 311 W/m 18,0 km/h (3 Bft)
07.04.2014 15:02 21,8 C 21,1 C 62 % 1012,3 hPa 0,0 l/m 0 min 0 min 1,0 UV-I 239 W/m 12,9 km/h (3 Bft)
07.04.2014 15:04 21,8 C 21,1 C 62 % 1012,4 hPa 0,0 l/m 0 min 0 min 1,0 UV-I 213 W/m 20,6 km/h (4 Bft)
07.04.2014 15:06 21,7 C 21,1 C 60 % 1012,3 hPa 0,0 l/m 0 min 0 min 1,0 UV-I 218 W/m 20,6 km/h (4 Bft)
07.04.2014 15:08 21,6 C 21,1 C 61 % 1012,3 hPa 0,0 l/m 0 min 0 min 1,0 UV-I 234 W/m 10,3 km/h (2 Bft)
07.04.2014 15:10 21,6 C 21,1 C 62 % 1012,3 hPa 0,0 l/m 0 min 0 min 0,9 UV-I 197 W/m 12,9 km/h (3 Bft)
07.04.2014 15:12 21,5 C 20,6 C 63 % 1012,2 hPa 0,0 l/m 0 min 0 min 0,9 UV-I 209 W/m 20,6 km/h (4 Bft)
07.04.2014 15:14 21,4 C 20,6 C 63 % 1012,2 hPa 0,0 l/m 0 min 0 min 0,9 UV-I 243 W/m 18,0 km/h (3 Bft)
07.04.2014 15:16 21,4 C 21,1 C 63 % 1012,1 hPa 0,0 l/m 0 min 0 min 1,1 UV-I 243 W/m 12,9 km/h (3 Bft)
07.04.2014 15:18 21,6 C 21,1 C 62 % 1012,1 hPa 0,0 l/m 2 min 0 min 1,8 UV-I 385 W/m 18,0 km/h (3 Bft)
07.04.2014 15:20 21,8 C 21,7 C 61 % 1012,0 hPa 0,0 l/m 0 min 0 min 1,2 UV-I 299 W/m 12,9 km/h (3 Bft)
07.04.2014 15:22 21,9 C 21,7 C 62 % 1011,9 hPa 0,0 l/m 0 min 0 min 1,6 UV-I 295 W/m 18,0 km/h (3 Bft)
07.04.2014 15:24 22,1 C 21,7 C 62 % 1011,9 hPa 0,0 l/m 0 min 0 min 1,4 UV-I 295 W/m 10,3 km/h (2 Bft)
07.04.2014 15:26 22,1 C 21,7 C 62 % 1011,9 hPa 0,0 l/m 0 min 0 min 1,9 UV-I 350 W/m 15,4 km/h (3 Bft)
07.04.2014 15:28 22,3 C 22,2 C 62 % 1011,9 hPa 0,0 l/m 0 min 0 min 2,1 UV-I 350 W/m 18,0 km/h (3 Bft)
07.04.2014 15:30 22,4 C 22,2 C 60 % 1011,9 hPa 0,0 l/m 2 min 0 min 1,8 UV-I 559 W/m 12,9 km/h (3 Bft)
07.04.2014 15:32 22,5 C 22,2 C 57 % 1011,8 hPa 0,0 l/m 2 min 0 min 1,3 UV-I 559 W/m 18,0 km/h (3 Bft)
07.04.2014 15:34 22,5 C 22,2 C 58 % 1011,7 hPa 0,0 l/m 0 min 0 min 2,3 UV-I 271 W/m 7,7 km/h (2 Bft)
07.04.2014 15:36 22,8 C 22,8 C 59 % 1011,7 hPa 0,0 l/m 2 min 0 min 2,3 UV-I 758 W/m 18,0 km/h (3 Bft)
07.04.2014 15:38 23,2 C 25,0 C 61 % 1011,6 hPa 0,0 l/m 2 min 0 min 2,2 UV-I 708 W/m 10,3 km/h (2 Bft)
07.04.2014 15:40 23,4 C 26,7 C 57 % 1011,6 hPa 0,0 l/m 2 min 0 min 2,1 UV-I 649 W/m 15,4 km/h (3 Bft)
07.04.2014 15:42 23,5 C 26,7 C 56 % 1011,5 hPa 0,0 l/m 2 min 0 min 1,8 UV-I 561 W/m 23,2 km/h (4 Bft)
07.04.2014 15:44 23,5 C 23,3 C 56 % 1011,5 hPa 0,0 l/m 2 min 0 min 1,7 UV-I 640 W/m 25,7 km/h (4 Bft)
07.04.2014 15:46 23,2 C 18,3 C 54 % 1011,5 hPa 0,0 l/m 0 min 0 min 1,2 UV-I 185 W/m 28,3 km/h (4 Bft)
07.04.2014 15:48 22,8 C 16,7 C 57 % 1011,6 hPa 0,0 l/m 0 min 0 min 1,2 UV-I 186 W/m 18,0 km/h (3 Bft)
07.04.2014 15:50 22,4 C 15,6 C 57 % 1011,6 hPa 0,0 l/m 0 min 0 min 1,4 UV-I 179 W/m 18,0 km/h (3 Bft)
07.04.2014 15:52 22,2 C 15,0 C 58 % 1011,5 hPa 0,0 l/m 0 min 0 min 0,9 UV-I 155 W/m 12,9 km/h (3 Bft)
07.04.2014 15:54 21,9 C 14,4 C 58 % 1011,5 hPa 0,0 l/m 0 min 0 min 0,8 UV-I 174 W/m 15,4 km/h (3 Bft)
07.04.2014 15:56 21,8 C 14,4 C 58 % 1011,4 hPa 0,0 l/m 0 min 0 min 0,8 UV-I 204 W/m 12,9 km/h (3 Bft)
07.04.2014 15:58 21,8 C 15,0 C 59 % 1011,4 hPa 0,0 l/m 2 min 0 min 1,6 UV-I 682 W/m 25,7 km/h (4 Bft)
07.04.2014 16:00 22,1 C 15,0 C 57 % 1011,4 hPa 0,0 l/m 2 min 0 min 1,0 UV-I 682 W/m 15,4 km/h (3 Bft)
07.04.2014 16:02 22,2 C 15,0 C 55 % 1011,4 hPa 0,0 l/m 0 min 0 min 1,0 UV-I 218 W/m 28,3 km/h (4 Bft)
07.04.2014 16:04 22,2 C 14,4 C 54 % 1011,3 hPa 0,0 l/m 2 min 0 min 1,7 UV-I 628 W/m 28,3 km/h (4 Bft)
07.04.2014 16:06 22,2 C 14,4 C 54 % 1011,2 hPa 0,0 l/m 0 min 0 min 1,0 UV-I 195 W/m 18,0 km/h (3 Bft)
07.04.2014 16:08 22,1 C 14,4 C 56 % 1011,1 hPa 0,0 l/m 0 min 0 min 1,3 UV-I 311 W/m 10,3 km/h (2 Bft)
07.04.2014 16:10 22,2 C 15,0 C 58 % 1011,1 hPa 0,0 l/m 2 min 0 min 1,5 UV-I 615 W/m 12,9 km/h (3 Bft)
07.04.2014 16:12 22,4 C 15,6 C 57 % 1011,1 hPa 0,0 l/m 2 min 0 min 1,5 UV-I 656 W/m 18,0 km/h (3 Bft)
07.04.2014 16:14 22,7 C 15,6 C 57 % 1011,1 hPa 0,0 l/m 2 min 0 min 1,0 UV-I 664 W/m 20,6 km/h (4 Bft)
07.04.2014 16:16 22,7 C 15,6 C 57 % 1011,1 hPa 0,0 l/m 0 min 0 min 0,9 UV-I 188 W/m 20,6 km/h (4 Bft)
07.04.2014 16:18 22,4 C 15,0 C 57 % 1011,1 hPa 0,0 l/m 0 min 0 min 0,9 UV-I 207 W/m 20,6 km/h (4 Bft)
07.04.2014 16:20 22,4 C 15,6 C 59 % 1010,9 hPa 0,0 l/m 0 min 0 min 0,9 UV-I 207 W/m 23,2 km/h (4 Bft)
07.04.2014 16:22 22,4 C 15,0 C 58 % 1011,0 hPa 0,0 l/m 0 min 0 min 0,9 UV-I 181 W/m 28,3 km/h (4 Bft)
07.04.2014 16:24 22,1 C 15,0 C 58 % 1010,9 hPa 0,0 l/m 0 min 0 min 1,3 UV-I 181 W/m 36,0 km/h (5 Bft)
07.04.2014 16:26 22,1 C 15,0 C 59 % 1011,0 hPa 0,0 l/m 2 min 0 min 1,4 UV-I 568 W/m 20,6 km/h (4 Bft)
07.04.2014 16:28 22,1 C 15,6 C 59 % 1010,9 hPa 0,0 l/m 2 min 0 min 0,9 UV-I 568 W/m 20,6 km/h (4 Bft)
07.04.2014 16:30 22,2 C 15,0 C 59 % 1010,9 hPa 0,0 l/m 0 min 0 min 1,0 UV-I 232 W/m 18,0 km/h (3 Bft)
07.04.2014 16:32 22,1 C 15,0 C 58 % 1010,8 hPa 0,0 l/m 0 min 0 min 1,4 UV-I 269 W/m 20,6 km/h (4 Bft)
07.04.2014 16:34 22,3 C 15,6 C 59 % 1010,6 hPa 0,0 l/m 2 min 0 min 1,4 UV-I 613 W/m 23,2 km/h (4 Bft)
07.04.2014 16:36 22,6 C 15,6 C 58 % 1010,8 hPa 0,0 l/m 2 min 0 min 1,4 UV-I 601 W/m 18,0 km/h (3 Bft)
07.04.2014 16:38 22,7 C 15,6 C 57 % 1010,6 hPa 0,0 l/m 2 min 0 min 1,3 UV-I 527 W/m 23,2 km/h (4 Bft)
07.04.2014 16:40 22,6 C 15,0 C 57 % 1010,7 hPa 0,0 l/m 0 min 0 min 0,9 UV-I 148 W/m 25,7 km/h (4 Bft)
07.04.2014 16:42 22,2 C 14,4 C 58 % 1010,7 hPa 0,0 l/m 0 min 0 min 0,8 UV-I 148 W/m 25,7 km/h (4 Bft)
07.04.2014 16:44 21,9 C 14,4 C 58 % 1010,7 hPa 0,0 l/m 0 min 0 min 0,8 UV-I 178 W/m 23,2 km/h (4 Bft)
07.04.2014 16:46 21,7 C 15,0 C 59 % 1010,6 hPa 0,0 l/m 2 min 0 min 1,2 UV-I 436 W/m 33,5 km/h (5 Bft)
07.04.2014 16:48 21,7 C 15,0 C 59 % 1010,7 hPa 0,0 l/m 0 min 0 min 0,8 UV-I 193 W/m 28,3 km/h (4 Bft)
07.04.2014 16:50 21,6 C 15,6 C 59 % 1010,6 hPa 0,0 l/m 0 min 0 min 0,9 UV-I 265 W/m 25,7 km/h (4 Bft)
07.04.2014 16:52 21,7 C 16,1 C 60 % 1010,6 hPa 0,0 l/m 2 min 0 min 1,1 UV-I 480 W/m 23,2 km/h (4 Bft)
07.04.2014 16:54 21,9 C 16,7 C 60 % 1010,6 hPa 0,0 l/m 2 min 0 min 1,1 UV-I 476 W/m 25,7 km/h (4 Bft)
07.04.2014 16:56 22,2 C 17,2 C 59 % 1010,4 hPa 0,0 l/m 2 min 0 min 1,0 UV-I 490 W/m 25,7 km/h (4 Bft)
07.04.2014 16:58 22,4 C 17,2 C 60 % 1010,3 hPa 0,0 l/m 2 min 0 min 1,1 UV-I 513 W/m 28,3 km/h (4 Bft)
07.04.2014 17:00 22,5 C 17,2 C 57 % 1010,6 hPa 0,0 l/m 2 min 0 min 0,9 UV-I 482 W/m 41,2 km/h (6 Bft)
07.04.2014 17:02 22,4 C 17,2 C 57 % 1010,3 hPa 0,0 l/m 0 min 0 min 0,8 UV-I 195 W/m 23,2 km/h (4 Bft)
07.04.2014 17:04 22,2 C 16,7 C 58 % 1010,3 hPa 0,0 l/m 0 min 0 min 0,8 UV-I 197 W/m 28,3 km/h (4 Bft)
07.04.2014 17:06 22,0 C 16,7 C 58 % 1010,2 hPa 0,0 l/m 0 min 0 min 0,7 UV-I 176 W/m 33,5 km/h (5 Bft)
07.04.2014 17:08 21,8 C 16,7 C 59 % 1010,2 hPa 0,0 l/m 0 min 0 min 0,7 UV-I 162 W/m 23,2 km/h (4 Bft)
07.04.2014 17:10 21,6 C 16,7 C 59 % 1010,1 hPa 0,0 l/m 0 min 0 min 0,6 UV-I 148 W/m 28,3 km/h (4 Bft)
07.04.2014 17:12 21,5 C 16,7 C 60 % 1010,0 hPa 0,0 l/m 0 min 0 min 0,6 UV-I 204 W/m 25,7 km/h (4 Bft)
07.04.2014 17:14 21,4 C 16,7 C 60 % 1009,9 hPa 0,0 l/m 0 min 0 min 0,6 UV-I 169 W/m 18,0 km/h (3 Bft)
07.04.2014 17:16 21,3 C 16,7 C 60 % 1009,9 hPa 0,0 l/m 0 min 0 min 0,5 UV-I 171 W/m 15,4 km/h (3 Bft)
07.04.2014 17:18 21,3 C 17,2 C 61 % 1009,9 hPa 0,0 l/m 0 min 0 min 0,5 UV-I 183 W/m 25,7 km/h (4 Bft)
07.04.2014 17:20 21,3 C 17,2 C 60 % 1010,0 hPa 0,0 l/m 0 min 0 min 0,5 UV-I 199 W/m 25,7 km/h (4 Bft)
07.04.2014 17:22 21,3 C 17,2 C 60 % 1009,9 hPa 0,0 l/m 2 min 0 min 0,6 UV-I 241 W/m 20,6 km/h (4 Bft)
07.04.2014 17:24 21,4 C 17,2 C 61 % 1009,9 hPa 0,0 l/m 2 min 0 min 0,6 UV-I 278 W/m 10,3 km/h (2 Bft)
07.04.2014 17:26 21,5 C 17,2 C 60 % 1009,9 hPa 0,0 l/m 2 min 0 min 0,6 UV-I 279 W/m 20,6 km/h (4 Bft)
07.04.2014 17:28 21,6 C 17,8 C 59 % 1009,8 hPa 0,0 l/m 2 min 0 min 0,6 UV-I 241 W/m 18,0 km/h (3 Bft)
07.04.2014 17:30 21,6 C 17,8 C 59 % 1009,8 hPa 0,0 l/m 0 min 0 min 0,6 UV-I 223 W/m 18,0 km/h (3 Bft)
07.04.2014 17:32 21,6 C 17,8 C 59 % 1009,7 hPa 0,0 l/m 0 min 0 min 0,5 UV-I 195 W/m 12,9 km/h (3 Bft)
07.04.2014 17:34 21,6 C 17,8 C 59 % 1009,7 hPa 0,0 l/m 0 min 0 min 0,5 UV-I 200 W/m 20,6 km/h (4 Bft)
07.04.2014 17:36 21,5 C 17,8 C 59 % 1009,7 hPa 0,0 l/m 0 min 0 min 0,5 UV-I 186 W/m 15,4 km/h (3 Bft)
07.04.2014 17:38 21,5 C 17,8 C 59 % 1009,7 hPa 0,0 l/m 0 min 0 min 0,5 UV-I 192 W/m 28,3 km/h (4 Bft)
07.04.2014 17:40 21,4 C 17,8 C 59 % 1009,6 hPa 0,0 l/m 0 min 0 min 0,0 UV-I 174 W/m 18,0 km/h (3 Bft)
07.04.2014 17:42 21,4 C 18,3 C 59 % 1009,6 hPa 0,0 l/m 0 min 0 min 0,0 UV-I 160 W/m 18,0 km/h (3 Bft)
07.04.2014 17:44 21,4 C 18,3 C 59 % 1009,7 hPa 0,0 l/m 0 min 0 min 0,0 UV-I 158 W/m 18,0 km/h (3 Bft)
07.04.2014 17:46 21,3 C 18,3 C 60 % 1009,7 hPa 0,0 l/m 0 min 0 min 0,0 UV-I 153 W/m 23,2 km/h (4 Bft)
07.04.2014 17:48 21,2 C 18,3 C 60 % 1009,5 hPa 0,0 l/m 0 min 0 min 0,0 UV-I 153 W/m 20,6 km/h (4 Bft)
07.04.2014 17:50 21,2 C 18,3 C 60 % 1009,5 hPa 0,0 l/m 0 min 0 min 0,0 UV-I 162 W/m 18,0 km/h (3 Bft)
07.04.2014 17:52 21,2 C 18,3 C 59 % 1009,5 hPa 0,0 l/m 0 min 0 min 0,0 UV-I 165 W/m 15,4 km/h (3 Bft)
07.04.2014 17:54 21,2 C 18,3 C 59 % 1009,5 hPa 0,0 l/m 0 min 0 min 0,0 UV-I 158 W/m 33,5 km/h (5 Bft)
07.04.2014 17:56 21,2 C 18,3 C 59 % 1009,4 hPa 0,0 l/m 0 min 0 min 0,0 UV-I 148 W/m 25,7 km/h (4 Bft)
07.04.2014 17:58 21,1 C 18,3 C 59 % 1009,4 hPa 0,0 l/m 0 min 0 min 0,0 UV-I 142 W/m 25,7 km/h (4 Bft)
07.04.2014 18:00 21,1 C 18,3 C 60 % 1009,4 hPa 0,0 l/m 0 min 0 min 0,0 UV-I 137 W/m 23,2 km/h (4 Bft)
07.04.2014 18:02 21,1 C 18,3 C 60 % 1009,4 hPa 0,0 l/m 0 min 0 min 0,0 UV-I 132 W/m 15,4 km/h (3 Bft)
07.04.2014 18:06 21,1 C 18,3 C 60 % 1009,3 hPa 0,0 l/m 0 min 0 min 0,0 UV-I 120 W/m 18,0 km/h (3 Bft)
07.04.2014 18:08 21,1 C 18,3 C 61 % 1009,3 hPa 0,0 l/m 0 min 0 min 0,0 UV-I 116 W/m 12,9 km/h (3 Bft)
07.04.2014 18:10 21,0 C 18,3 C 61 % 1009,2 hPa 0,0 l/m 0 min 0 min 0,0 UV-I 111 W/m 10,3 km/h (2 Bft)
07.04.2014 18:12 21,0 C 18,3 C 61 % 1009,2 hPa 0,0 l/m 0 min 0 min 0,0 UV-I 104 W/m 10,3 km/h (2 Bft)
07.04.2014 18:14 20,9 C 18,3 C 62 % 1009,2 hPa 0,0 l/m 0 min 0 min 0,0 UV-I 98 W/m 12,9 km/h (3 Bft)
07.04.2014 18:16 20,9 C 18,3 C 62 % 1009,1 hPa 0,0 l/m 0 min 0 min 0,0 UV-I 97 W/m 12,9 km/h (3 Bft)
07.04.2014 18:18 20,9 C 18,3 C 62 % 1009,1 hPa 0,0 l/m 0 min 0 min 0,0 UV-I 97 W/m 10,3 km/h (2 Bft)
07.04.2014 18:20 20,9 C 18,3 C 61 % 1009,1 hPa 0,0 l/m 0 min 0 min 0,0 UV-I 97 W/m 12,9 km/h (3 Bft)
07.04.2014 18:22 20,8 C 18,3 C 61 % 1009,1 hPa 0,0 l/m 0 min 0 min 0,0 UV-I 93 W/m 15,4 km/h (3 Bft)
07.04.2014 18:24 20,8 C 18,3 C 61 % 1009,1 hPa 0,0 l/m 0 min 0 min 0,0 UV-I 88 W/m 12,9 km/h (3 Bft)
07.04.2014 18:26 20,8 C 18,3 C 61 % 1009,1 hPa 0,0 l/m 0 min 0 min 0,0 UV-I 83 W/m 7,7 km/h (2 Bft)
07.04.2014 18:28 20,8 C 18,3 C 61 % 1009,1 hPa 0,0 l/m 0 min 0 min 0,0 UV-I 79 W/m 15,4 km/h (3 Bft)
07.04.2014 18:30 20,8 C 18,3 C 61 % 1009,1 hPa 0,0 l/m 0 min 0 min 0,0 UV-I 76 W/m 20,6 km/h (4 Bft)
07.04.2014 18:32 20,8 C 18,3 C 61 % 1009,0 hPa 0,0 l/m 0 min 0 min 0,0 UV-I 74 W/m 20,6 km/h (4 Bft)
07.04.2014 18:34 20,8 C 18,3 C 61 % 1009,0 hPa 0,0 l/m 0 min 0 min 0,0 UV-I 72 W/m 10,3 km/h (2 Bft)
07.04.2014 18:36 20,8 C 17,8 C 61 % 1009,0 hPa 0,0 l/m 0 min 0 min 0,0 UV-I 67 W/m 20,6 km/h (4 Bft)
07.04.2014 18:38 20,8 C 18,3 C 61 % 1008,8 hPa 0,0 l/m 0 min 0 min 0,0 UV-I 62 W/m 20,6 km/h (4 Bft)
07.04.2014 18:40 20,7 C 17,8 C 61 % 1008,8 hPa 0,0 l/m 0 min 0 min 0,0 UV-I 58 W/m 10,3 km/h (2 Bft)
07.04.2014 18:42 20,7 C 18,3 C 61 % 1008,7 hPa 0,0 l/m 0 min 0 min 0,0 UV-I 56 W/m 12,9 km/h (3 Bft)
07.04.2014 18:44 20,7 C 17,8 C 61 % 1008,8 hPa 0,0 l/m 0 min 0 min 0,0 UV-I 54 W/m 18,0 km/h (3 Bft)
07.04.2014 18:46 20,6 C 17,8 C 62 % 1008,8 hPa 0,0 l/m 0 min 0 min 0,0 UV-I 53 W/m 12,9 km/h (3 Bft)
07.04.2014 18:48 20,6 C 17,8 C 62 % 1008,8 hPa 0,0 l/m 0 min 0 min 0,0 UV-I 49 W/m 12,9 km/h (3 Bft)
07.04.2014 18:50 20,6 C 17,8 C 62 % 1008,7 hPa 0,0 l/m 0 min 0 min 0,0 UV-I 49 W/m 15,4 km/h (3 Bft)
07.04.2014 18:52 20,5 C 17,8 C 62 % 1008,7 hPa 0,0 l/m 0 min 0 min 0,0 UV-I 49 W/m 12,9 km/h (3 Bft)
07.04.2014 18:54 20,5 C 17,8 C 62 % 1008,7 hPa 0,0 l/m 0 min 0 min 0,0 UV-I 46 W/m 23,2 km/h (4 Bft)
07.04.2014 18:56 20,6 C 17,8 C 61 % 1008,7 hPa 0,0 l/m 0 min 0 min 0,0 UV-I 42 W/m 20,6 km/h (4 Bft)
07.04.2014 18:58 20,5 C 17,8 C 62 % 1008,7 hPa 0,0 l/m 0 min 0 min 0,0 UV-I 39 W/m 10,3 km/h (2 Bft)
07.04.2014 19:00 20,5 C 17,8 C 62 % 1008,7 hPa 0,0 l/m 0 min 0 min 0,0 UV-I 37 W/m 7,7 km/h (2 Bft)
07.04.2014 19:02 20,4 C 17,8 C 62 % 1008,7 hPa 0,0 l/m 0 min 0 min 0,0 UV-I 37 W/m 5,1 km/h (1 Bft)
07.04.2014 19:04 20,4 C 17,8 C 62 % 1008,7 hPa 0,0 l/m 0 min 0 min 0,0 UV-I 39 W/m 7,7 km/h (2 Bft)
07.04.2014 19:06 20,4 C 17,2 C 62 % 1008,8 hPa 0,0 l/m 0 min 0 min 0,0 UV-I 40 W/m 7,7 km/h (2 Bft)
07.04.2014 19:08 20,3 C 17,2 C 62 % 1008,8 hPa 0,0 l/m 0 min 0 min 0,0 UV-I 42 W/m 10,3 km/h (2 Bft)
07.04.2014 19:10 20,3 C 17,2 C 63 % 1008,8 hPa 0,0 l/m 0 min 0 min 0,0 UV-I 44 W/m 5,1 km/h (1 Bft)
07.04.2014 19:12 20,3 C 17,2 C 63 % 1008,7 hPa 0,0 l/m 0 min 0 min 0,0 UV-I 42 W/m 18,0 km/h (3 Bft)
07.04.2014 19:14 20,2 C 17,2 C 63 % 1008,7 hPa 0,0 l/m 0 min 0 min 0,0 UV-I 40 W/m 12,9 km/h (3 Bft)
07.04.2014 19:16 20,2 C 17,2 C 63 % 1008,7 hPa 0,0 l/m 0 min 0 min 0,0 UV-I 35 W/m 10,3 km/h (2 Bft)
07.04.2014 19:18 20,2 C 17,2 C 63 % 1008,7 hPa 0,0 l/m 0 min 0 min 0,0 UV-I 32 W/m 15,4 km/h (3 Bft)
07.04.2014 19:20 20,2 C 17,2 C 63 % 1008,6 hPa 0,0 l/m 0 min 0 min 0,0 UV-I 28 W/m 7,7 km/h (2 Bft)
07.04.2014 19:22 20,1 C 17,2 C 63 % 1008,5 hPa 0,0 l/m 0 min 0 min 0,0 UV-I 25 W/m 2,6 km/h (1 Bft)
07.04.2014 19:24 20,1 C 17,2 C 63 % 1008,4 hPa 0,0 l/m 0 min 0 min 0,0 UV-I 23 W/m 7,7 km/h (2 Bft)
07.04.2014 19:26 20,1 C 17,2 C 63 % 1008,4 hPa 0,0 l/m 0 min 0 min 0,0 UV-I 21 W/m 10,3 km/h (2 Bft)
07.04.2014 19:28 20,0 C 17,2 C 64 % 1008,2 hPa 0,0 l/m 0 min 0 min 0,0 UV-I 19 W/m 10,3 km/h (2 Bft)
07.04.2014 19:30 19,9 C 17,2 C 64 % 1008,3 hPa 0,0 l/m 0 min 0 min 0,0 UV-I 19 W/m 7,7 km/h (2 Bft)
07.04.2014 19:32 19,9 C 17,2 C 64 % 1008,3 hPa 0,0 l/m 0 min 0 min 0,0 UV-I 18 W/m 7,7 km/h (2 Bft)
07.04.2014 19:34 19,9 C 17,2 C 64 % 1008,3 hPa 0,0 l/m 0 min 0 min 0,0 UV-I 16 W/m 10,3 km/h (2 Bft)
07.04.2014 19:36 19,9 C 17,2 C 64 % 1008,3 hPa 0,0 l/m 0 min 0 min 0,0 UV-I 16 W/m 5,1 km/h (1 Bft)
07.04.2014 19:38 19,8 C 16,7 C 64 % 1008,3 hPa 0,0 l/m 0 min 0 min 0,0 UV-I 16 W/m 7,7 km/h (2 Bft)
07.04.2014 19:40 19,8 C 17,2 C 64 % 1008,3 hPa 0,0 l/m 0 min 0 min 0,0 UV-I 16 W/m 7,7 km/h (2 Bft)
07.04.2014 19:42 19,8 C 16,7 C 63 % 1008,2 hPa 0,0 l/m 0 min 0 min 0,0 UV-I 16 W/m 10,3 km/h (2 Bft)
07.04.2014 19:44 19,8 C 17,2 C 63 % 1008,2 hPa 0,0 l/m 0 min 0 min 0,0 UV-I 16 W/m 10,3 km/h (2 Bft)
07.04.2014 19:46 19,8 C 17,2 C 62 % 1008,2 hPa 0,0 l/m 0 min 0 min 0,0 UV-I 14 W/m 12,9 km/h (3 Bft)
07.04.2014 19:48 19,9 C 17,2 C 62 % 1008,1 hPa 0,0 l/m 0 min 0 min 0,0 UV-I 12 W/m 7,7 km/h (2 Bft)
07.04.2014 19:50 19,9 C 17,2 C 62 % 1008,1 hPa 0,0 l/m 0 min 0 min 0,0 UV-I 12 W/m 12,9 km/h (3 Bft)
07.04.2014 19:52 19,8 C 17,2 C 62 % 1008,2 hPa 0,0 l/m 0 min 0 min 0,0 UV-I 11 W/m 15,4 km/h (3 Bft)
07.04.2014 19:54 19,8 C 16,7 C 62 % 1008,0 hPa 0,0 l/m 0 min 0 min 0,0 UV-I 11 W/m 7,7 km/h (2 Bft)
07.04.2014 19:56 19,8 C 16,7 C 62 % 1008,0 hPa 0,0 l/m 0 min 0 min 0,0 UV-I 11 W/m 12,9 km/h (3 Bft)
07.04.2014 19:58 19,7 C 16,7 C 63 % 1008,0 hPa 0,0 l/m 0 min 0 min 0,0 UV-I 9 W/m 12,9 km/h (3 Bft)
07.04.2014 20:00 19,7 C 16,7 C 63 % 1008,0 hPa 0,0 l/m 0 min 0 min 0,0 UV-I 7 W/m 2,6 km/h (1 Bft)
07.04.2014 20:02 19,6 C 16,7 C 63 % 1008,1 hPa 0,0 l/m 0 min 0 min 0,0 UV-I 7 W/m 10,3 km/h (2 Bft)
07.04.2014 20:04 19,6 C 16,7 C 62 % 1008,0 hPa 0,0 l/m 0 min 0 min 0,0 UV-I 5 W/m 20,6 km/h (4 Bft)
07.04.2014 20:06 19,6 C 16,7 C 63 % 1008,1 hPa 0,0 l/m 0 min 0 min 0,0 UV-I 5 W/m 20,6 km/h (4 Bft)
07.04.2014 20:08 19,6 C 16,7 C 63 % 1008,0 hPa 0,0 l/m 0 min 0 min 0,0 UV-I 5 W/m 10,3 km/h (2 Bft)
07.04.2014 20:10 19,6 C 16,7 C 63 % 1008,0 hPa 0,0 l/m 0 min 0 min 0,0 UV-I 0 W/m 5,1 km/h (1 Bft)
07.04.2014 20:12 19,5 C 16,7 C 63 % 1008,0 hPa 0,0 l/m 0 min 0 min 0,0 UV-I 0 W/m 10,3 km/h (2 Bft)
07.04.2014 20:14 19,4 C 16,7 C 63 % 1007,9 hPa 0,0 l/m 0 min 0 min 0,0 UV-I 0 W/m 10,3 km/h (2 Bft)
07.04.2014 20:16 19,4 C 16,7 C 63 % 1007,9 hPa 0,0 l/m 0 min 0 min 0,0 UV-I 0 W/m 2,6 km/h (1 Bft)
07.04.2014 20:18 19,3 C 16,1 C 64 % 1007,9 hPa 0,0 l/m 0 min 0 min 0,0 UV-I 0 W/m 2,6 km/h (1 Bft)
07.04.2014 20:20 19,2 C 16,1 C 64 % 1007,9 hPa 0,0 l/m 0 min 0 min 0,0 UV-I 0 W/m 10,3 km/h (2 Bft)
07.04.2014 20:22 19,2 C 16,1 C 64 % 1007,9 hPa 0,0 l/m 0 min 0 min 0,0 UV-I 0 W/m 7,7 km/h (2 Bft)
07.04.2014 20:24 19,1 C 16,1 C 64 % 1007,9 hPa 0,0 l/m 0 min 0 min 0,0 UV-I 0 W/m 10,3 km/h (2 Bft)
07.04.2014 20:26 19,1 C 16,1 C 64 % 1007,9 hPa 0,0 l/m 0 min 0 min 0,0 UV-I 0 W/m 15,4 km/h (3 Bft)
07.04.2014 20:28 19,1 C 16,1 C 65 % 1007,9 hPa 0,0 l/m 0 min 0 min 0,0 UV-I 0 W/m 5,1 km/h (1 Bft)
07.04.2014 20:30 19,1 C 16,1 C 65 % 1007,8 hPa 0,0 l/m 0 min 0 min 0,0 UV-I 0 W/m 15,4 km/h (3 Bft)
07.04.2014 20:32 19,0 C 16,1 C 65 % 1007,8 hPa 0,0 l/m 0 min 0 min 0,0 UV-I 0 W/m 10,3 km/h (2 Bft)
07.04.2014 20:34 18,9 C 16,1 C 65 % 1007,8 hPa 0,0 l/m 0 min 0 min 0,0 UV-I 0 W/m 10,3 km/h (2 Bft)
07.04.2014 20:36 18,9 C 16,1 C 65 % 1007,8 hPa 0,0 l/m 0 min 0 min 0,0 UV-I 0 W/m 12,9 km/h (3 Bft)
07.04.2014 20:38 18,9 C 16,1 C 65 % 1007,9 hPa 0,0 l/m 0 min 0 min 0,0 UV-I 0 W/m 7,7 km/h (2 Bft)
07.04.2014 20:40 18,9 C 16,1 C 65 % 1007,8 hPa 0,0 l/m 0 min 0 min 0,0 UV-I 0 W/m 7,7 km/h (2 Bft)
07.04.2014 20:42 18,8 C 16,1 C 66 % 1007,9 hPa 0,0 l/m 0 min 0 min 0,0 UV-I 0 W/m 5,1 km/h (1 Bft)
07.04.2014 20:44 18,8 C 16,1 C 65 % 1007,8 hPa 0,0 l/m 0 min 0 min 0,0 UV-I 0 W/m 10,3 km/h (2 Bft)
07.04.2014 20:46 18,8 C 16,1 C 65 % 1007,8 hPa 0,0 l/m 0 min 0 min 0,0 UV-I 0 W/m 12,9 km/h (3 Bft)
07.04.2014 20:48 18,8 C 16,1 C 65 % 1007,8 hPa 0,0 l/m 0 min 0 min 0,0 UV-I 0 W/m 18,0 km/h (3 Bft)
07.04.2014 20:50 18,8 C 16,1 C 65 % 1007,8 hPa 0,0 l/m 0 min 0 min 0,0 UV-I 0 W/m 15,4 km/h (3 Bft)
07.04.2014 20:52 18,8 C 16,1 C 65 % 1007,8 hPa 0,0 l/m 0 min 0 min 0,0 UV-I 0 W/m 7,7 km/h (2 Bft)
07.04.2014 20:54 18,8 C 16,1 C 65 % 1007,7 hPa 0,0 l/m 0 min 0 min 0,0 UV-I 0 W/m 15,4 km/h (3 Bft)
07.04.2014 20:56 18,8 C 16,1 C 65 % 1007,6 hPa 0,0 l/m 0 min 0 min 0,0 UV-I 0 W/m 12,9 km/h (3 Bft)
07.04.2014 20:58 18,8 C 16,1 C 64 % 1007,6 hPa 0,0 l/m 0 min 0 min 0,0 UV-I 0 W/m 12,9 km/h (3 Bft)
07.04.2014 21:00 18,9 C 16,1 C 64 % 1007,7 hPa 0,0 l/m 0 min 0 min 0,0 UV-I 0 W/m 12,9 km/h (3 Bft)
07.04.2014 21:02 18,8 C 16,1 C 64 % 1007,7 hPa 0,0 l/m 0 min 0 min 0,0 UV-I 0 W/m 10,3 km/h (2 Bft)
07.04.2014 21:04 18,8 C 16,1 C 64 % 1007,7 hPa 0,0 l/m 0 min 0 min 0,0 UV-I 0 W/m 7,7 km/h (2 Bft)
07.04.2014 21:06 18,8 C 16,1 C 64 % 1007,6 hPa 0,0 l/m 0 min 0 min 0,0 UV-I 0 W/m 12,9 km/h (3 Bft)
07.04.2014 21:08 18,8 C 16,1 C 64 % 1007,7 hPa 0,0 l/m 0 min 0 min 0,0 UV-I 0 W/m 10,3 km/h (2 Bft)
07.04.2014 21:10 18,7 C 16,1 C 64 % 1007,7 hPa 0,0 l/m 0 min 0 min 0,0 UV-I 0 W/m 15,4 km/h (3 Bft)
07.04.2014 21:12 18,7 C 16,1 C 65 % 1007,6 hPa 0,0 l/m 0 min 0 min 0,0 UV-I 0 W/m 7,7 km/h (2 Bft)
07.04.2014 21:14 18,7 C 16,1 C 65 % 1007,6 hPa 0,0 l/m 0 min 0 min 0,0 UV-I 0 W/m 10,3 km/h (2 Bft)
07.04.2014 21:16 18,7 C 16,1 C 64 % 1007,6 hPa 0,0 l/m 0 min 0 min 0,0 UV-I 0 W/m 18,0 km/h (3 Bft)
07.04.2014 21:18 18,7 C 16,1 C 64 % 1007,5 hPa 0,0 l/m 0 min 0 min 0,0 UV-I 0 W/m 18,0 km/h (3 Bft)
07.04.2014 21:20 18,6 C 16,1 C 65 % 1007,5 hPa 0,0 l/m 0 min 0 min 0,0 UV-I 0 W/m 10,3 km/h (2 Bft)
07.04.2014 21:22 18,6 C 15,6 C 65 % 1007,5 hPa 0,0 l/m 0 min 0 min 0,0 UV-I 0 W/m 15,4 km/h (3 Bft)
07.04.2014 21:24 18,6 C 15,6 C 64 % 1007,5 hPa 0,0 l/m 0 min 0 min 0,0 UV-I 0 W/m 12,9 km/h (3 Bft)
07.04.2014 21:26 18,6 C 15,6 C 65 % 1007,5 hPa 0,0 l/m 0 min 0 min 0,0 UV-I 0 W/m 12,9 km/h (3 Bft)
07.04.2014 21:28 18,5 C 15,6 C 64 % 1007,6 hPa 0,0 l/m 0 min 0 min 0,0 UV-I 0 W/m 20,6 km/h (4 Bft)
07.04.2014 21:30 18,5 C 15,6 C 65 % 1007,5 hPa 0,0 l/m 0 min 0 min 0,0 UV-I 0 W/m 10,3 km/h (2 Bft)
07.04.2014 21:32 18,5 C 15,6 C 64 % 1007,5 hPa 0,0 l/m 0 min 0 min 0,0 UV-I 0 W/m 15,4 km/h (3 Bft)
07.04.2014 21:34 18,5 C 15,6 C 64 % 1007,5 hPa 0,0 l/m 0 min 0 min 0,0 UV-I 0 W/m 18,0 km/h (3 Bft)
07.04.2014 21:36 18,5 C 15,6 C 64 % 1007,5 hPa 0,0 l/m 0 min 0 min 0,0 UV-I 0 W/m 18,0 km/h (3 Bft)
07.04.2014 21:38 18,5 C 15,6 C 64 % 1007,4 hPa 0,0 l/m 0 min 0 min 0,0 UV-I 0 W/m 12,9 km/h (3 Bft)
07.04.2014 21:40 18,4 C 15,6 C 64 % 1007,5 hPa 0,0 l/m 0 min 0 min 0,0 UV-I 0 W/m 10,3 km/h (2 Bft)
07.04.2014 21:42 18,4 C 15,6 C 64 % 1007,4 hPa 0,0 l/m 0 min 0 min 0,0 UV-I 0 W/m 7,7 km/h (2 Bft)
07.04.2014 21:44 18,4 C 15,6 C 65 % 1007,4 hPa 0,0 l/m 0 min 0 min 0,0 UV-I 0 W/m 12,9 km/h (3 Bft)
07.04.2014 21:46 18,3 C 15,6 C 64 % 1007,3 hPa 0,0 l/m 0 min 0 min 0,0 UV-I 0 W/m 12,9 km/h (3 Bft)
07.04.2014 21:48 18,3 C 15,6 C 64 % 1007,3 hPa 0,0 l/m 0 min 0 min 0,0 UV-I 0 W/m 18,0 km/h (3 Bft)
07.04.2014 21:50 18,3 C 15,6 C 64 % 1007,3 hPa 0,0 l/m 0 min 0 min 0,0 UV-I 0 W/m 10,3 km/h (2 Bft)
07.04.2014 21:52 18,2 C 15,6 C 65 % 1007,2 hPa 0,0 l/m 0 min 0 min 0,0 UV-I 0 W/m 10,3 km/h (2 Bft)
07.04.2014 21:54 18,1 C 15,6 C 65 % 1007,2 hPa 0,0 l/m 0 min 0 min 0,0 UV-I 0 W/m 15,4 km/h (3 Bft)
07.04.2014 21:56 18,1 C 15,0 C 65 % 1007,2 hPa 0,0 l/m 0 min 0 min 0,0 UV-I 0 W/m 10,3 km/h (2 Bft)
07.04.2014 21:58 18,1 C 15,6 C 65 % 1007,2 hPa 0,0 l/m 0 min 0 min 0,0 UV-I 0 W/m 12,9 km/h (3 Bft)
07.04.2014 22:00 18,0 C 15,0 C 65 % 1007,1 hPa 0,0 l/m 0 min 0 min 0,0 UV-I 0 W/m 15,4 km/h (3 Bft)
07.04.2014 22:02 18,1 C 15,6 C 64 % 1007,1 hPa 0,0 l/m 0 min 0 min 0,0 UV-I 0 W/m 12,9 km/h (3 Bft)
07.04.2014 22:04 18,1 C 15,0 C 64 % 1007,0 hPa 0,0 l/m 0 min 0 min 0,0 UV-I 0 W/m 12,9 km/h (3 Bft)
07.04.2014 22:06 18,1 C 15,0 C 64 % 1006,9 hPa 0,0 l/m 0 min 0 min 0,0 UV-I 0 W/m 12,9 km/h (3 Bft)
07.04.2014 22:08 18,0 C 15,0 C 64 % 1006,9 hPa 0,0 l/m 0 min 0 min 0,0 UV-I 0 W/m 10,3 km/h (2 Bft)
07.04.2014 22:10 18,0 C 15,0 C 64 % 1006,9 hPa 0,0 l/m 0 min 0 min 0,0 UV-I 0 W/m 10,3 km/h (2 Bft)
07.04.2014 22:12 18,0 C 15,0 C 64 % 1006,9 hPa 0,0 l/m 0 min 0 min 0,0 UV-I 0 W/m 18,0 km/h (3 Bft)
07.04.2014 22:14 17,9 C 15,0 C 64 % 1006,9 hPa 0,0 l/m 0 min 0 min 0,0 UV-I 0 W/m 10,3 km/h (2 Bft)
07.04.2014 22:16 17,9 C 15,0 C 65 % 1006,9 hPa 0,0 l/m 0 min 0 min 0,0 UV-I 0 W/m 0,0 km/h (0 Bft)
07.04.2014 22:18 17,9 C 15,0 C 65 % 1006,9 hPa 0,0 l/m 0 min 0 min 0,0 UV-I 0 W/m 2,6 km/h (1 Bft)
07.04.2014 22:20 17,9 C 15,0 C 65 % 1006,9 hPa 0,0 l/m 0 min 0 min 0,0 UV-I 0 W/m 15,4 km/h (3 Bft)
07.04.2014 22:22 17,9 C 15,0 C 65 % 1006,8 hPa 0,0 l/m 0 min 0 min 0,0 UV-I 0 W/m 10,3 km/h (2 Bft)
07.04.2014 22:24 17,9 C 15,0 C 65 % 1006,8 hPa 0,0 l/m 0 min 0 min 0,0 UV-I 0 W/m 7,7 km/h (2 Bft)
07.04.2014 22:26 17,9 C 15,6 C 64 % 1006,8 hPa 0,0 l/m 0 min 0 min 0,0 UV-I 0 W/m 10,3 km/h (2 Bft)
07.04.2014 22:28 17,9 C 15,6 C 64 % 1006,8 hPa 0,0 l/m 0 min 0 min 0,0 UV-I 0 W/m 10,3 km/h (2 Bft)
07.04.2014 22:30 17,9 C 15,6 C 64 % 1006,8 hPa 0,0 l/m 0 min 0 min 0,0 UV-I 0 W/m 12,9 km/h (3 Bft)
07.04.2014 22:32 17,9 C 15,0 C 64 % 1006,8 hPa 0,0 l/m 0 min 0 min 0,0 UV-I 0 W/m 20,6 km/h (4 Bft)
07.04.2014 22:34 17,9 C 15,0 C 64 % 1006,8 hPa 0,0 l/m 0 min 0 min 0,0 UV-I 0 W/m 10,3 km/h (2 Bft)
07.04.2014 22:36 17,9 C 15,0 C 64 % 1006,7 hPa 0,0 l/m 0 min 0 min 0,0 UV-I 0 W/m 12,9 km/h (3 Bft)
07.04.2014 22:38 18,0 C 15,6 C 64 % 1006,7 hPa 0,0 l/m 0 min 0 min 0,0 UV-I 0 W/m 10,3 km/h (2 Bft)
07.04.2014 22:40 18,1 C 15,6 C 64 % 1006,8 hPa 0,0 l/m 0 min 0 min 0,0 UV-I 0 W/m 7,7 km/h (2 Bft)
07.04.2014 22:42 18,1 C 13,9 C 66 % 1006,9 hPa 0,2 l/m 0 min 2 min 0,0 UV-I 0 W/m 7,7 km/h (2 Bft)
07.04.2014 22:44 17,9 C 13,3 C 69 % 1008,4 hPa 0,0 l/m 0 min 2 min 0,0 UV-I 0 W/m 23,2 km/h (4 Bft)
07.04.2014 22:46 17,6 C 13,3 C 72 % 1008,4 hPa 0,0 l/m 0 min 2 min 0,0 UV-I 0 W/m 20,6 km/h (4 Bft)
07.04.2014 22:48 17,1 C 12,8 C 75 % 1008,4 hPa 0,0 l/m 0 min 2 min 0,0 UV-I 0 W/m 10,3 km/h (2 Bft)
07.04.2014 22:50 16,7 C 12,8 C 78 % 1009,1 hPa 0,0 l/m 0 min 0 min 0,0 UV-I 0 W/m 15,4 km/h (3 Bft)
07.04.2014 22:52 16,3 C 12,8 C 79 % 1009,1 hPa 0,0 l/m 0 min 2 min 0,0 UV-I 0 W/m 15,4 km/h (3 Bft)
07.04.2014 22:54 16,0 C 12,8 C 81 % 1009,2 hPa 0,0 l/m 0 min 2 min 0,0 UV-I 0 W/m 28,3 km/h (4 Bft)
07.04.2014 22:56 15,7 C 12,8 C 83 % 1009,5 hPa 0,0 l/m 0 min 2 min 0,0 UV-I 0 W/m 18,0 km/h (3 Bft)
07.04.2014 22:58 15,5 C 12,8 C 84 % 1009,4 hPa 0,2 l/m 0 min 2 min 0,0 UV-I 0 W/m 12,9 km/h (3 Bft)
07.04.2014 23:00 15,2 C 12,8 C 86 % 1009,5 hPa 0,2 l/m 0 min 2 min 0,0 UV-I 0 W/m 23,2 km/h (4 Bft)
07.04.2014 23:02 14,9 C 12,8 C 87 % 1009,5 hPa 0,4 l/m 0 min 2 min 0,0 UV-I 0 W/m 12,9 km/h (3 Bft)
07.04.2014 23:06 14,5 C 12,2 C 89 % 1009,4 hPa 0,6 l/m 0 min 2 min 0,0 UV-I 0 W/m 20,6 km/h (4 Bft)
07.04.2014 23:08 14,4 C 12,2 C 91 % 1009,3 hPa 0,2 l/m 0 min 2 min 0,0 UV-I 0 W/m 12,9 km/h (3 Bft)
07.04.2014 23:10 14,2 C 12,2 C 91 % 1009,1 hPa 0,2 l/m 0 min 2 min 0,0 UV-I 0 W/m 5,1 km/h (1 Bft)
07.04.2014 23:12 14,2 C 12,2 C 91 % 1008,9 hPa 0,2 l/m 0 min 2 min 0,0 UV-I 0 W/m 0,0 km/h (0 Bft)
07.04.2014 23:14 14,2 C 12,2 C 92 % 1008,5 hPa 0,4 l/m 0 min 2 min 0,0 UV-I 0 W/m 0,0 km/h (0 Bft)
07.04.2014 23:16 14,2 C 12,2 C 93 % 1008,4 hPa 0,0 l/m 0 min 2 min 0,0 UV-I 0 W/m 0,0 km/h (0 Bft)
07.04.2014 23:18 14,1 C 12,2 C 93 % 1008,4 hPa 0,2 l/m 0 min 2 min 0,0 UV-I 0 W/m 2,6 km/h (1 Bft)
07.04.2014 23:20 14,1 C 12,2 C 93 % 1008,4 hPa 0,0 l/m 0 min 2 min 0,0 UV-I 0 W/m 0,0 km/h (0 Bft)
07.04.2014 23:22 14,0 C 12,2 C 94 % 1008,6 hPa 0,2 l/m 0 min 2 min 0,0 UV-I 0 W/m 2,6 km/h (1 Bft)
07.04.2014 23:24 14,0 C 12,2 C 94 % 1008,5 hPa 0,0 l/m 0 min 2 min 0,0 UV-I 0 W/m 0,0 km/h (0 Bft)
07.04.2014 23:26 13,9 C 12,2 C 94 % 1008,5 hPa 0,0 l/m 0 min 2 min 0,0 UV-I 0 W/m 2,6 km/h (1 Bft)
07.04.2014 23:28 13,9 C 12,2 C 94 % 1008,5 hPa 0,2 l/m 0 min 2 min 0,0 UV-I 0 W/m 0,0 km/h (0 Bft)
07.04.2014 23:30 13,9 C 12,2 C 94 % 1008,5 hPa 0,0 l/m 0 min 2 min 0,0 UV-I 0 W/m 0,0 km/h (0 Bft)
07.04.2014 23:32 13,9 C 12,2 C 94 % 1008,4 hPa 0,2 l/m 0 min 2 min 0,0 UV-I 0 W/m 0,0 km/h (0 Bft)
07.04.2014 23:34 13,9 C 12,2 C 95 % 1008,5 hPa 0,0 l/m 0 min 2 min 0,0 UV-I 0 W/m 0,0 km/h (0 Bft)
07.04.2014 23:36 13,9 C 12,2 C 95 % 1008,5 hPa 0,0 l/m 0 min 2 min 0,0 UV-I 0 W/m 0,0 km/h (0 Bft)
07.04.2014 23:38 13,9 C 12,2 C 95 % 1008,6 hPa 0,0 l/m 0 min 2 min 0,0 UV-I 0 W/m 2,6 km/h (1 Bft)
07.04.2014 23:40 13,9 C 12,2 C 95 % 1008,6 hPa 0,0 l/m 0 min 0 min 0,0 UV-I 0 W/m 0,0 km/h (0 Bft)
07.04.2014 23:42 13,9 C 12,2 C 95 % 1008,7 hPa 0,0 l/m 0 min 2 min 0,0 UV-I 0 W/m 0,0 km/h (0 Bft)
07.04.2014 23:44 13,9 C 12,2 C 95 % 1008,7 hPa 0,0 l/m 0 min 0 min 0,0 UV-I 0 W/m 0,0 km/h (0 Bft)
07.04.2014 23:46 13,9 C 12,2 C 95 % 1008,7 hPa 0,0 l/m 0 min 0 min 0,0 UV-I 0 W/m 0,0 km/h (0 Bft)
07.04.2014 23:48 13,9 C 12,2 C 95 % 1008,5 hPa 0,0 l/m 0 min 0 min 0,0 UV-I 0 W/m 0,0 km/h (0 Bft)
07.04.2014 23:50 13,8 C 12,2 C 96 % 1008,5 hPa 0,0 l/m 0 min 0 min 0,0 UV-I 0 W/m 0,0 km/h (0 Bft)
07.04.2014 23:52 13,8 C 12,2 C 96 % 1008,5 hPa 0,0 l/m 0 min 0 min 0,0 UV-I 0 W/m 0,0 km/h (0 Bft)
07.04.2014 23:54 13,8 C 12,2 C 96 % 1008,5 hPa 0,0 l/m 0 min 0 min 0,0 UV-I 0 W/m 0,0 km/h (0 Bft)
07.04.2014 23:56 13,8 C 12,2 C 96 % 1008,4 hPa 0,0 l/m 0 min 0 min 0,0 UV-I 0 W/m 0,0 km/h (0 Bft)
07.04.2014 23:58 13,7 C 12,2 C 96 % 1008,5 hPa 0,0 l/m 0 min 0 min 0,0 UV-I 0 W/m 0,0 km/h (0 Bft)
_ Min-Zeit 06:10 06:10 15:46 22:36 - - - - - 00:18
Minimum _ 13,4 C 11,7 C 54 % 1006,7 hPa - - - - - 0,0 km/h (0 Bft)
_ Max-Zeit 15:42 15:40 23:50 01:14 23:06 09:00 02:46 13:52 13:48 17:00
Maximum _ 23,5 C 26,7 C 96 % 1017,3 hPa 0,6 l/m 2 min 2 min 2,9 UV-I 817 W/m 41,2 km/h
W (6 Bft)
Durchschnitt _ 17,8 C 15,8 C 75 % 1013,4 hPa #3,4 l/m #5:10 h #58 min. 1,4 UV-I 277 W/m 8,7 km/h (2 Bft)
© 2014 W. Hausmann